| time (UTC) | temp F | wind direction | speed MPH | gust MPH | rain 1hr in | rain 24hr in | rain mn in | humidity % | barometer mb |
| 20260508025315 | 87 | 200 | 0.0 | 0.0 | 0.00 | 0.00 | 0.00 | 13 | 915.8 |
| 20260508025212 | 87 | 200 | 0.0 | 0.0 | 0.00 | 0.00 | 0.00 | 13 | 915.8 |
| 20260508025105 | 87 | 200 | 0.0 | 0.0 | 0.00 | 0.00 | 0.00 | 13 | 915.8 |
| 20260508024958 | 87 | 200 | 0.0 | 0.0 | 0.00 | 0.00 | 0.00 | 13 | 915.7 |
| 20260508024851 | 87 | 200 | 0.0 | 0.0 | 0.00 | 0.00 | 0.00 | 13 | 915.8 |
| 20260508024744 | 87 | 200 | 0.0 | 0.0 | 0.00 | 0.00 | 0.00 | 13 | 915.8 |
| 20260508024642 | 87 | 200 | 0.0 | 0.0 | 0.00 | 0.00 | 0.00 | 13 | 915.8 |
| 20260508024100 | 88 | 200 | 0.0 | 0.0 | 0.00 | 0.00 | 0.00 | 12 | 915.7 |
| 20260508023734 | 88 | 200 | 0.0 | 0.0 | 0.00 | 0.00 | 0.00 | 12 | 915.7 |
| 20260508023410 | 88 | 200 | 0.0 | 0.0 | 0.00 | 0.00 | 0.00 | 12 | 915.7 |
| 20260508023308 | 88 | 200 | 0.0 | 2.0 | 0.00 | 0.00 | 0.00 | 12 | 915.7 |
| 20260508023204 | 88 | 200 | 0.0 | 2.0 | 0.00 | 0.00 | 0.00 | 12 | 915.6 |
| 20260508023102 | 88 | 200 | 0.0 | 2.0 | 0.00 | 0.00 | 0.00 | 12 | 915.7 |
| 20260508022958 | 88 | 200 | 0.0 | 2.0 | 0.00 | 0.00 | 0.00 | 12 | 915.6 |
| 20260508022850 | 89 | 200 | 0.0 | 2.0 | 0.00 | 0.00 | 0.00 | 12 | 915.6 |
| 20260508022744 | 89 | 200 | 0.0 | 2.0 | 0.00 | 0.00 | 0.00 | 12 | 915.6 |
| 20260508022642 | 89 | 200 | 0.0 | 2.0 | 0.00 | 0.00 | 0.00 | 12 | 915.6 |
| 20260508022538 | 89 | 200 | 0.0 | 2.0 | 0.00 | 0.00 | 0.00 | 12 | 915.6 |
| 20260508022435 | 89 | 200 | 1.0 | 2.0 | 0.00 | 0.00 | 0.00 | 12 | 915.6 |
| 20260508022332 | 89 | 200 | 1.0 | 2.0 | 0.00 | 0.00 | 0.00 | 12 | 915.6 |
| 20260508022006 | 89 | 184 | 1.0 | 2.0 | 0.00 | 0.00 | 0.00 | 11 | 915.6 |
| 20260508021858 | 89 | 185 | 0.0 | 2.0 | 0.00 | 0.00 | 0.00 | 11 | 915.6 |
| 20260508021754 | 90 | 191 | 0.0 | 2.0 | 0.00 | 0.00 | 0.00 | 11 | 915.5 |
| 20260508021428 | 90 | 203 | 0.0 | 2.0 | 0.00 | 0.00 | 0.00 | 11 | 915.5 |
| 20260508021326 | 90 | 221 | 0.0 | 2.0 | 0.00 | 0.00 | 0.00 | 11 | 915.5 |
| 20260508021223 | 90 | 221 | 0.0 | 2.0 | 0.00 | 0.00 | 0.00 | 11 | 915.5 |
| 20260508021120 | 90 | 221 | 0.0 | 6.0 | 0.00 | 0.00 | 0.00 | 11 | 915.5 |
| 20260508021012 | 90 | 221 | 1.0 | 6.0 | 0.00 | 0.00 | 0.00 | 11 | 915.5 |
| 20260508020645 | 90 | 221 | 2.0 | 6.0 | 0.00 | 0.00 | 0.00 | 11 | 915.5 |
| 20260508020539 | 90 | 221 | 2.0 | 6.0 | 0.00 | 0.00 | 0.00 | 11 | 915.5 |
| 20260508020218 | 91 | 211 | 3.0 | 6.0 | 0.00 | 0.00 | 0.00 | 10 | 915.5 |
| 20260508020115 | 91 | 244 | 3.0 | 6.0 | 0.00 | 0.00 | 0.00 | 10 | 915.5 |
| 20260508020012 | 91 | 225 | 3.0 | 6.0 | 0.00 | 0.00 | 0.00 | 10 | 915.5 |
| 20260508015907 | 91 | 239 | 3.0 | 6.0 | 0.00 | 0.00 | 0.00 | 10 | 915.5 |
| 20260508015804 | 91 | 251 | 2.0 | 6.0 | 0.00 | 0.00 | 0.00 | 10 | 915.5 |
| 20260508015438 | 91 | 215 | 1.0 | 6.0 | 0.00 | 0.00 | 0.00 | 10 | 915.6 |
| 20260508015331 | 92 | 239 | 1.0 | 6.0 | 0.00 | 0.00 | 0.00 | 10 | 915.5 |
| 20260508015006 | 92 | 209 | 0.0 | 2.0 | 0.00 | 0.00 | 0.00 | 10 | 915.5 |
| 20260508014903 | 92 | 255 | 0.0 | 2.0 | 0.00 | 0.00 | 0.00 | 10 | 915.6 |
| 20260508014758 | 92 | 231 | 0.0 | 0.0 | 0.00 | 0.00 | 0.00 | 10 | 915.5 |
| 20260508014655 | 92 | 231 | 0.0 | 0.0 | 0.00 | 0.00 | 0.00 | 10 | 915.5 |
| 20260508014549 | 92 | 231 | 0.0 | 1.0 | 0.00 | 0.00 | 0.00 | 10 | 915.6 |
| 20260508014442 | 92 | 231 | 0.0 | 0.0 | 0.00 | 0.00 | 0.00 | 10 | 915.6 |
| 20260508014338 | 92 | 231 | 0.0 | 8.0 | 0.00 | 0.00 | 0.00 | 10 | 915.5 |
| 20260508014016 | 92 | 315 | 0.0 | 8.0 | 0.00 | 0.00 | 0.00 | 9 | 915.6 |
| 20260508013647 | 92 | 338 | 1.0 | 8.0 | 0.00 | 0.00 | 0.00 | 9 | 915.6 |
| 20260508013102 | 93 | 207 | 1.0 | 8.0 | 0.00 | 0.00 | 0.00 | 10 | 915.5 |
| 20260508012958 | 93 | 231 | 2.0 | 8.0 | 0.00 | 0.00 | 0.00 | 10 | 915.5 |
| 20260508012852 | 93 | 161 | 2.0 | 8.0 | 0.00 | 0.00 | 0.00 | 9 | 915.5 |
| 20260508012531 | 93 | 254 | 3.0 | 8.0 | 0.00 | 0.00 | 0.00 | 9 | 915.6 |
| 20260508012428 | 93 | 243 | 3.0 | 8.0 | 0.00 | 0.00 | 0.00 | 9 | 915.6 |
| 20260508012100 | 93 | 253 | 2.0 | 8.0 | 0.00 | 0.00 | 0.00 | 9 | 915.6 |
| 20260508011957 | 93 | 210 | 2.0 | 8.0 | 0.00 | 0.00 | 0.00 | 9 | 915.5 |
| 20260508011855 | 93 | 221 | 1.0 | 8.0 | 0.00 | 0.00 | 0.00 | 9 | 915.5 |
| 20260508011748 | 94 | 301 | 1.0 | 8.0 | 0.00 | 0.00 | 0.00 | 9 | 915.5 |
| 20260508011646 | 94 | 281 | 1.0 | 8.0 | 0.00 | 0.00 | 0.00 | 9 | 915.5 |
| 20260508011326 | 94 | 295 | 1.0 | 8.0 | 0.00 | 0.00 | 0.00 | 9 | 915.6 |
| 20260508011222 | 94 | 253 | 2.0 | 8.0 | 0.00 | 0.00 | 0.00 | 9 | 915.6 |
| 20260508011115 | 94 | 243 | 2.0 | 8.0 | 0.00 | 0.00 | 0.00 | 9 | 915.6 |
| 20260508011008 | 94 | 297 | 2.0 | 8.0 | 0.00 | 0.00 | 0.00 | 9 | 915.7 |
| 20260508010904 | 94 | 259 | 2.0 | 8.0 | 0.00 | 0.00 | 0.00 | 9 | 915.6 |
| 20260508010800 | 94 | 271 | 1.0 | 8.0 | 0.00 | 0.00 | 0.00 | 9 | 915.6 |
| 20260508010655 | 94 | 270 | 1.0 | 6.0 | 0.00 | 0.00 | 0.00 | 9 | 915.7 |
| 20260508010551 | 94 | 287 | 1.0 | 5.0 | 0.00 | 0.00 | 0.00 | 9 | 915.6 |
| 20260508010444 | 94 | 255 | 1.0 | 5.0 | 0.00 | 0.00 | 0.00 | 9 | 915.6 |
| 20260508010339 | 94 | 271 | 1.0 | 5.0 | 0.00 | 0.00 | 0.00 | 9 | 915.7 |
| 20260508010235 | 94 | 299 | 1.0 | 5.0 | 0.00 | 0.00 | 0.00 | 9 | 915.7 |
| 20260508010128 | 94 | 225 | 0.0 | 5.0 | 0.00 | 0.00 | 0.00 | 9 | 915.6 |
| 20260508010022 | 94 | 219 | 0.0 | 3.0 | 0.00 | 0.00 | 0.00 | 9 | 915.6 |
| 20260508005918 | 94 | 198 | 0.0 | 3.0 | 0.00 | 0.00 | 0.00 | 9 | 915.7 |
| 20260508005815 | 94 | 217 | 0.0 | 6.0 | 0.00 | 0.00 | 0.00 | 9 | 915.7 |
| 20260508005707 | 94 | 225 | 0.0 | 6.0 | 0.00 | 0.00 | 0.00 | 9 | 915.7 |
| 20260508005600 | 94 | 223 | 0.0 | 6.0 | 0.00 | 0.00 | 0.00 | 9 | 915.7 |
| 20260508005456 | 94 | 223 | 0.0 | 6.0 | 0.00 | 0.00 | 0.00 | 9 | 915.7 |
| 20260508005350 | 94 | 296 | 1.0 | 6.0 | 0.00 | 0.00 | 0.00 | 9 | 915.7 |
| 20260508005247 | 94 | 257 | 1.0 | 6.0 | 0.00 | 0.00 | 0.00 | 9 | 915.8 |
| 20260508005143 | 94 | 288 | 1.0 | 6.0 | 0.00 | 0.00 | 0.00 | 9 | 915.7 |
| 20260508005036 | 94 | 306 | 1.0 | 6.0 | 0.00 | 0.00 | 0.00 | 8 | 915.7 |
| 20260508004933 | 94 | 313 | 1.0 | 6.0 | 0.00 | 0.00 | 0.00 | 8 | 915.7 |
| 20260508004613 | 94 | 0 | 1.0 | 6.0 | 0.00 | 0.00 | 0.00 | 8 | 915.7 |
| 20260508004247 | 94 | 298 | 2.0 | 6.0 | 0.00 | 0.00 | 0.00 | 8 | 915.8 |
| 20260508004144 | 94 | 355 | 2.0 | 6.0 | 0.00 | 0.00 | 0.00 | 9 | 915.8 |
| 20260508004038 | 94 | 296 | 2.0 | 6.0 | 0.00 | 0.00 | 0.00 | 8 | 915.8 |
| 20260508003935 | 94 | 309 | 1.0 | 6.0 | 0.00 | 0.00 | 0.00 | 8 | 915.7 |
| 20260508003831 | 94 | 319 | 1.0 | 5.0 | 0.00 | 0.00 | 0.00 | 8 | 915.7 |
| 20260508003724 | 94 | 290 | 1.0 | 5.0 | 0.00 | 0.00 | 0.00 | 8 | 915.8 |
| 20260508003620 | 94 | 299 | 1.0 | 5.0 | 0.00 | 0.00 | 0.00 | 8 | 915.8 |
| 20260508003517 | 95 | 0 | 1.0 | 5.0 | 0.00 | 0.00 | 0.00 | 8 | 915.8 |
| 20260508003409 | 95 | 351 | 0.0 | 5.0 | 0.00 | 0.00 | 0.00 | 8 | 915.8 |
| 20260508003303 | 94 | 311 | 1.0 | 5.0 | 0.00 | 0.00 | 0.00 | 8 | 915.8 |
| 20260508003159 | 94 | 355 | 1.0 | 5.0 | 0.00 | 0.00 | 0.00 | 8 | 915.8 |
| 20260508003055 | 94 | 227 | 1.0 | 5.0 | 0.00 | 0.00 | 0.00 | 9 | 915.8 |
| 20260508002948 | 94 | 223 | 1.0 | 5.0 | 0.00 | 0.00 | 0.00 | 9 | 915.8 |
| 20260508002842 | 94 | 199 | 1.0 | 5.0 | 0.00 | 0.00 | 0.00 | 8 | 915.8 |
| 20260508002739 | 94 | 199 | 1.0 | 5.0 | 0.00 | 0.00 | 0.00 | 8 | 915.8 |
| 20260508002633 | 94 | 229 | 1.0 | 8.0 | 0.00 | 0.00 | 0.00 | 8 | 915.8 |
| 20260508002525 | 94 | 340 | 1.0 | 8.0 | 0.00 | 0.00 | 0.00 | 8 | 915.8 |
| 20260508002421 | 94 | 254 | 1.0 | 8.0 | 0.00 | 0.00 | 0.00 | 9 | 915.8 |
| 20260508002101 | 94 | 293 | 2.0 | 8.0 | 0.00 | 0.00 | 0.00 | 9 | 915.8 |
| 20260508001957 | 94 | 234 | 2.0 | 8.0 | 0.00 | 0.00 | 0.00 | 9 | 915.8 |
| 20260508001851 | 94 | 254 | 2.0 | 8.0 | 0.00 | 0.00 | 0.00 | 9 | 915.8 |
| 20260508001746 | 94 | 263 | 2.0 | 8.0 | 0.00 | 0.00 | 0.00 | 9 | 915.9 |
| 20260508001638 | 94 | 277 | 2.0 | 11.0 | 0.00 | 0.00 | 0.00 | 9 | 915.8 |
| 20260508001532 | 94 | 246 | 2.0 | 11.0 | 0.00 | 0.00 | 0.00 | 9 | 915.8 |
| 20260508001428 | 94 | 225 | 2.0 | 11.0 | 0.00 | 0.00 | 0.00 | 9 | 915.8 |
| 20260508001325 | 94 | 242 | 1.0 | 11.0 | 0.00 | 0.00 | 0.00 | 9 | 915.9 |
| 20260508001220 | 94 | 275 | 1.0 | 11.0 | 0.00 | 0.00 | 0.00 | 9 | 915.9 |
| 20260508001116 | 94 | 338 | 1.0 | 11.0 | 0.00 | 0.00 | 0.00 | 9 | 915.9 |
| 20260508000750 | 94 | 223 | 3.0 | 11.0 | 0.00 | 0.00 | 0.00 | 8 | 915.9 |
| 20260508000644 | 94 | 221 | 3.0 | 11.0 | 0.00 | 0.00 | 0.00 | 8 | 915.9 |
| 20260508000540 | 94 | 236 | 4.0 | 11.0 | 0.00 | 0.00 | 0.00 | 8 | 915.9 |
| 20260508000437 | 94 | 180 | 4.0 | 11.0 | 0.00 | 0.00 | 0.00 | 8 | 915.9 |
| 20260508000334 | 94 | 163 | 4.0 | 11.0 | 0.00 | 0.00 | 0.00 | 8 | 915.9 |
| 20260508000229 | 94 | 168 | 4.0 | 11.0 | 0.00 | 0.00 | 0.00 | 8 | 915.9 |
| 20260508000124 | 94 | 156 | 4.0 | 11.0 | 0.00 | 0.00 | 0.00 | 8 | 916.0 |
| 20260508000018 | 94 | 182 | 4.0 | 11.0 | 0.00 | 0.00 | 0.00 | 8 | 916.0 |
| 20260507235913 | 94 | 195 | 4.0 | 11.0 | 0.00 | 0.00 | 0.00 | 7 | 915.9 |
| 20260507235808 | 95 | 217 | 4.0 | 11.0 | 0.00 | 0.00 | 0.00 | 8 | 915.9 |
| 20260507235703 | 95 | 238 | 3.0 | 9.0 | 0.00 | 0.00 | 0.00 | 8 | 916.0 |
| 20260507235556 | 95 | 228 | 3.0 | 9.0 | 0.00 | 0.00 | 0.00 | 8 | 916.0 |
| 20260507235453 | 95 | 240 | 3.0 | 9.0 | 0.00 | 0.00 | 0.00 | 8 | 916.0 |
| 20260507235349 | 95 | 252 | 3.0 | 8.0 | 0.00 | 0.00 | 0.00 | 8 | 916.0 |
| 20260507235245 | 95 | 243 | 3.0 | 8.0 | 0.00 | 0.00 | 0.00 | 8 | 916.0 |
| 20260507235137 | 95 | 237 | 2.0 | 8.0 | 0.00 | 0.00 | 0.00 | 8 | 915.9 |
| 20260507235035 | 95 | 240 | 2.0 | 8.0 | 0.00 | 0.00 | 0.00 | 8 | 916.0 |
| 20260507234710 | 95 | 258 | 2.0 | 8.0 | 0.00 | 0.00 | 0.00 | 8 | 916.0 |
| 20260507234605 | 95 | 283 | 2.0 | 8.0 | 0.00 | 0.00 | 0.00 | 7 | 915.9 |
| 20260507234237 | 95 | 298 | 2.0 | 6.0 | 0.00 | 0.00 | 0.00 | 8 | 916.0 |
| 20260507234131 | 95 | 284 | 2.0 | 8.0 | 0.00 | 0.00 | 0.00 | 8 | 916.0 |
| 20260507234025 | 95 | 261 | 1.0 | 8.0 | 0.00 | 0.00 | 0.00 | 8 | 916.0 |
| 20260507233918 | 95 | 264 | 2.0 | 8.0 | 0.00 | 0.00 | 0.00 | 8 | 916.0 |
| 20260507233816 | 94 | 279 | 2.0 | 8.0 | 0.00 | 0.00 | 0.00 | 8 | 916.0 |
| 20260507233710 | 94 | 270 | 2.0 | 8.0 | 0.00 | 0.00 | 0.00 | 8 | 916.0 |
| 20260507233605 | 94 | 252 | 2.0 | 8.0 | 0.00 | 0.00 | 0.00 | 8 | 916.0 |
| 20260507233238 | 94 | 231 | 2.0 | 8.0 | 0.00 | 0.00 | 0.00 | 8 | 915.9 |
| 20260507232913 | 94 | 246 | 3.0 | 9.0 | 0.00 | 0.00 | 0.00 | 7 | 916.0 |
| 20260507232807 | 94 | 311 | 4.0 | 9.0 | 0.00 | 0.00 | 0.00 | 8 | 916.0 |
| 20260507232659 | 94 | 248 | 4.0 | 9.0 | 0.00 | 0.00 | 0.00 | 8 | 916.0 |
| 20260507232554 | 94 | 269 | 4.0 | 9.0 | 0.00 | 0.00 | 0.00 | 8 | 916.0 |
| 20260507232447 | 94 | 254 | 5.0 | 9.0 | 0.00 | 0.00 | 0.00 | 8 | 916.0 |
| 20260507232346 | 94 | 270 | 5.0 | 9.0 | 0.00 | 0.00 | 0.00 | 8 | 916.0 |
| 20260507232240 | 94 | 222 | 5.0 | 9.0 | 0.00 | 0.00 | 0.00 | 7 | 916.0 |
| 20260507232136 | 94 | 243 | 5.0 | 14.0 | 0.00 | 0.00 | 0.00 | 8 | 916.1 |
| 20260507232029 | 94 | 252 | 4.0 | 14.0 | 0.00 | 0.00 | 0.00 | 8 | 916.0 |
| 20260507231924 | 94 | 230 | 4.0 | 14.0 | 0.00 | 0.00 | 0.00 | 8 | 916.0 |
| 20260507231820 | 94 | 249 | 4.0 | 14.0 | 0.00 | 0.00 | 0.00 | 8 | 916.0 |
| 20260507231713 | 94 | 242 | 4.0 | 14.0 | 0.00 | 0.00 | 0.00 | 8 | 916.0 |
| 20260507231605 | 94 | 248 | 3.0 | 14.0 | 0.00 | 0.00 | 0.00 | 8 | 916.1 |
| 20260507231458 | 94 | 253 | 3.0 | 14.0 | 0.00 | 0.00 | 0.00 | 8 | 916.1 |
| 20260507231355 | 94 | 240 | 3.0 | 14.0 | 0.00 | 0.00 | 0.00 | 8 | 916.0 |
| 20260507231246 | 94 | 249 | 4.0 | 14.0 | 0.00 | 0.00 | 0.00 | 8 | 916.0 |
| 20260507231143 | 94 | 305 | 5.0 | 14.0 | 0.00 | 0.00 | 0.00 | 9 | 916.1 |
| 20260507231037 | 94 | 302 | 5.0 | 14.0 | 0.00 | 0.00 | 0.00 | 9 | 916.2 |
| 20260507230932 | 94 | 242 | 6.0 | 14.0 | 0.00 | 0.00 | 0.00 | 8 | 916.1 |
| 20260507230825 | 94 | 215 | 6.0 | 14.0 | 0.00 | 0.00 | 0.00 | 9 | 916.1 |
| 20260507230722 | 94 | 244 | 6.0 | 14.0 | 0.00 | 0.00 | 0.00 | 9 | 916.1 |
| 20260507230615 | 94 | 202 | 6.0 | 14.0 | 0.00 | 0.00 | 0.00 | 9 | 916.1 |
| 20260507230513 | 94 | 232 | 6.0 | 14.0 | 0.00 | 0.00 | 0.00 | 9 | 916.2 |
| 20260507230407 | 94 | 257 | 5.0 | 14.0 | 0.00 | 0.00 | 0.00 | 9 | 916.2 |
| 20260507230041 | 94 | 234 | 3.0 | 15.0 | 0.00 | 0.00 | 0.00 | 9 | 916.1 |
| 20260507225715 | 94 | 290 | 2.0 | 15.0 | 0.00 | 0.00 | 0.00 | 9 | 916.2 |
| 20260507225351 | 94 | 218 | 2.0 | 15.0 | 0.00 | 0.00 | 0.00 | 9 | 916.2 |
| 20260507225248 | 94 | 305 | 2.0 | 15.0 | 0.00 | 0.00 | 0.00 | 9 | 916.3 |
| 20260507225141 | 94 | 291 | 3.0 | 15.0 | 0.00 | 0.00 | 0.00 | 9 | 916.3 |
| 20260507225038 | 94 | 261 | 3.0 | 15.0 | 0.00 | 0.00 | 0.00 | 9 | 916.2 |
| 20260507224930 | 94 | 0 | 4.0 | 15.0 | 0.00 | 0.00 | 0.00 | 10 | 916.3 |
| 20260507224826 | 94 | 5 | 4.0 | 15.0 | 0.00 | 0.00 | 0.00 | 10 | 916.3 |
| 20260507224719 | 94 | 294 | 5.0 | 15.0 | 0.00 | 0.00 | 0.00 | 10 | 916.2 |
| 20260507224611 | 93 | 209 | 5.0 | 15.0 | 0.00 | 0.00 | 0.00 | 10 | 916.3 |
| 20260507224507 | 93 | 221 | 6.0 | 15.0 | 0.00 | 0.00 | 0.00 | 10 | 916.3 |
| 20260507224404 | 94 | 190 | 6.0 | 15.0 | 0.00 | 0.00 | 0.00 | 10 | 916.3 |
| 20260507224037 | 94 | 218 | 5.0 | 12.0 | 0.00 | 0.00 | 0.00 | 9 | 916.4 |
| 20260507223930 | 94 | 221 | 5.0 | 12.0 | 0.00 | 0.00 | 0.00 | 9 | 916.4 |
| 20260507223826 | 94 | 234 | 5.0 | 12.0 | 0.00 | 0.00 | 0.00 | 9 | 916.5 |
| 20260507223723 | 94 | 228 | 4.0 | 12.0 | 0.00 | 0.00 | 0.00 | 9 | 916.4 |
| 20260507223400 | 94 | 302 | 4.0 | 12.0 | 0.00 | 0.00 | 0.00 | 9 | 916.5 |
| 20260507223257 | 94 | 265 | 4.0 | 12.0 | 0.00 | 0.00 | 0.00 | 9 | 916.6 |
| 20260507223156 | 94 | 273 | 4.0 | 12.0 | 0.00 | 0.00 | 0.00 | 9 | 916.6 |
| 20260507223050 | 94 | 15 | 5.0 | 12.0 | 0.00 | 0.00 | 0.00 | 9 | 916.5 |
| 20260507222948 | 94 | 281 | 5.0 | 12.0 | 0.00 | 0.00 | 0.00 | 10 | 916.6 |
| 20260507222844 | 94 | 232 | 4.0 | 12.0 | 0.00 | 0.00 | 0.00 | 10 | 916.6 |
| 20260507222521 | 94 | 262 | 4.0 | 12.0 | 0.00 | 0.00 | 0.00 | 9 | 916.7 |
| 20260507222417 | 94 | 215 | 4.0 | 12.0 | 0.00 | 0.00 | 0.00 | 10 | 916.7 |
| 20260507222310 | 94 | 214 | 4.0 | 12.0 | 0.00 | 0.00 | 0.00 | 9 | 916.7 |
| 20260507221947 | 94 | 223 | 3.0 | 8.0 | 0.00 | 0.00 | 0.00 | 10 | 916.8 |
| 20260507221401 | 94 | 40 | 2.0 | 11.0 | 0.00 | 0.00 | 0.00 | 10 | 916.8 |
| 20260507221036 | 94 | 256 | 2.0 | 11.0 | 0.00 | 0.00 | 0.00 | 10 | 916.9 |
| 20260507220930 | 94 | 250 | 2.0 | 11.0 | 0.00 | 0.00 | 0.00 | 10 | 916.9 |
| 20260507220823 | 94 | 283 | 2.0 | 11.0 | 0.00 | 0.00 | 0.00 | 10 | 916.9 |
| 20260507220720 | 94 | 300 | 2.0 | 11.0 | 0.00 | 0.00 | 0.00 | 10 | 916.9 |
| 20260507220615 | 94 | 307 | 3.0 | 11.0 | 0.00 | 0.00 | 0.00 | 10 | 917.0 |
| 20260507220513 | 94 | 298 | 3.0 | 11.0 | 0.00 | 0.00 | 0.00 | 10 | 917.0 |
| 20260507220411 | 94 | 0 | 3.0 | 11.0 | 0.00 | 0.00 | 0.00 | 11 | 917.0 |
| 20260507220305 | 94 | 319 | 3.0 | 11.0 | 0.00 | 0.00 | 0.00 | 10 | 917.0 |
| 20260507220159 | 94 | 290 | 3.0 | 11.0 | 0.00 | 0.00 | 0.00 | 10 | 917.1 |
| 20260507220057 | 94 | 273 | 3.0 | 11.0 | 0.00 | 0.00 | 0.00 | 10 | 917.0 |
| 20260507215951 | 94 | 315 | 3.0 | 11.0 | 0.00 | 0.00 | 0.00 | 10 | 917.1 |
| 20260507215847 | 94 | 328 | 3.0 | 11.0 | 0.00 | 0.00 | 0.00 | 11 | 917.1 |
| 20260507215526 | 94 | 246 | 3.0 | 8.0 | 0.00 | 0.00 | 0.00 | 10 | 917.1 |
| 20260507215423 | 94 | 183 | 2.0 | 8.0 | 0.00 | 0.00 | 0.00 | 10 | 917.1 |
| 20260507215318 | 94 | 198 | 2.0 | 8.0 | 0.00 | 0.00 | 0.00 | 10 | 917.1 |
| 20260507215215 | 94 | 223 | 2.0 | 8.0 | 0.00 | 0.00 | 0.00 | 10 | 917.1 |
| 20260507215110 | 94 | 229 | 2.0 | 8.0 | 0.00 | 0.00 | 0.00 | 10 | 917.2 |
| 20260507215006 | 94 | 252 | 2.0 | 10.0 | 0.00 | 0.00 | 0.00 | 10 | 917.2 |
| 20260507214902 | 94 | 0 | 2.0 | 10.0 | 0.00 | 0.00 | 0.00 | 10 | 917.2 |
| 20260507214757 | 94 | 251 | 2.0 | 10.0 | 0.00 | 0.00 | 0.00 | 10 | 917.3 |
| 20260507214431 | 94 | 302 | 2.0 | 10.0 | 0.00 | 0.00 | 0.00 | 11 | 917.4 |
| 20260507214104 | 94 | 305 | 2.0 | 10.0 | 0.00 | 0.00 | 0.00 | 11 | 917.4 |
| 20260507213957 | 94 | 24 | 2.0 | 10.0 | 0.00 | 0.00 | 0.00 | 10 | 917.4 |
| 20260507213627 | 94 | 321 | 2.0 | 10.0 | 0.00 | 0.00 | 0.00 | 11 | 917.4 |
| 20260507213304 | 94 | 263 | 2.0 | 10.0 | 0.00 | 0.00 | 0.00 | 11 | 917.6 |
| 20260507212939 | 94 | 274 | 2.0 | 7.0 | 0.00 | 0.00 | 0.00 | 11 | 917.5 |
| 20260507212833 | 94 | 317 | 2.0 | 7.0 | 0.00 | 0.00 | 0.00 | 11 | 917.6 |
| 20260507212727 | 94 | 248 | 2.0 | 7.0 | 0.00 | 0.00 | 0.00 | 11 | 917.6 |
| 20260507212621 | 94 | 215 | 2.0 | 7.0 | 0.00 | 0.00 | 0.00 | 11 | 917.7 |
| 20260507212514 | 94 | 290 | 2.0 | 7.0 | 0.00 | 0.00 | 0.00 | 11 | 917.6 |
| 20260507212149 | 93 | 239 | 2.0 | 7.0 | 0.00 | 0.00 | 0.00 | 11 | 917.7 |
| 20260507212042 | 93 | 355 | 2.0 | 7.0 | 0.00 | 0.00 | 0.00 | 11 | 917.8 |
| 20260507211940 | 93 | 294 | 2.0 | 7.0 | 0.00 | 0.00 | 0.00 | 12 | 917.8 |
| 20260507211618 | 93 | 284 | 3.0 | 10.0 | 0.00 | 0.00 | 0.00 | 11 | 917.8 |
| 20260507211516 | 93 | 329 | 3.0 | 10.0 | 0.00 | 0.00 | 0.00 | 11 | 917.8 |
| 20260507211151 | 93 | 265 | 4.0 | 10.0 | 0.00 | 0.00 | 0.00 | 11 | 917.8 |
| 20260507211047 | 93 | 221 | 4.0 | 10.0 | 0.00 | 0.00 | 0.00 | 11 | 917.8 |
| 20260507210939 | 93 | 274 | 5.0 | 10.0 | 0.00 | 0.00 | 0.00 | 11 | 917.8 |
| 20260507210832 | 93 | 207 | 4.0 | 10.0 | 0.00 | 0.00 | 0.00 | 11 | 917.8 |
| 20260507210727 | 93 | 215 | 4.0 | 10.0 | 0.00 | 0.00 | 0.00 | 11 | 917.9 |
| 20260507210621 | 92 | 236 | 4.0 | 10.0 | 0.00 | 0.00 | 0.00 | 11 | 917.9 |
| 20260507210518 | 93 | 224 | 4.0 | 10.0 | 0.00 | 0.00 | 0.00 | 11 | 917.9 |
| 20260507210415 | 93 | 225 | 3.0 | 10.0 | 0.00 | 0.00 | 0.00 | 11 | 917.9 |
| 20260507210307 | 92 | 223 | 3.0 | 10.0 | 0.00 | 0.00 | 0.00 | 11 | 917.9 |
| 20260507210201 | 92 | 237 | 2.0 | 10.0 | 0.00 | 0.00 | 0.00 | 11 | 918.0 |
| 20260507210054 | 92 | 248 | 2.0 | 10.0 | 0.00 | 0.00 | 0.00 | 11 | 918.0 |
| 20260507205952 | 93 | 231 | 1.0 | 10.0 | 0.00 | 0.00 | 0.00 | 11 | 918.0 |
| 20260507205850 | 93 | 226 | 1.0 | 9.0 | 0.00 | 0.00 | 0.00 | 11 | 918.1 |
| 20260507205748 | 92 | 344 | 1.0 | 9.0 | 0.00 | 0.00 | 0.00 | 11 | 918.1 |
| 20260507205422 | 92 | 338 | 2.0 | 9.0 | 0.00 | 0.00 | 0.00 | 12 | 918.1 |
| 20260507205316 | 92 | 157 | 2.0 | 9.0 | 0.00 | 0.00 | 0.00 | 12 | 918.2 |
| 20260507205211 | 92 | 308 | 2.0 | 9.0 | 0.00 | 0.00 | 0.00 | 12 | 918.2 |
| 20260507205105 | 92 | 337 | 2.0 | 9.0 | 0.00 | 0.00 | 0.00 | 12 | 918.2 |
| 20260507204958 | 92 | 294 | 2.0 | 9.0 | 0.00 | 0.00 | 0.00 | 12 | 918.2 |
| 20260507204853 | 91 | 312 | 2.0 | 9.0 | 0.00 | 0.00 | 0.00 | 12 | 918.2 |
| 20260507204748 | 91 | 0 | 2.0 | 9.0 | 0.00 | 0.00 | 0.00 | 12 | 918.2 |
| 20260507204642 | 91 | 283 | 2.0 | 9.0 | 0.00 | 0.00 | 0.00 | 12 | 918.2 |
| 20260507204537 | 91 | 184 | 2.0 | 9.0 | 0.00 | 0.00 | 0.00 | 12 | 918.2 |
| 20260507204431 | 91 | 316 | 1.0 | 9.0 | 0.00 | 0.00 | 0.00 | 12 | 918.2 |
| 20260507204325 | 91 | 280 | 1.0 | 8.0 | 0.00 | 0.00 | 0.00 | 12 | 918.2 |
| 20260507204221 | 91 | 333 | 1.0 | 6.0 | 0.00 | 0.00 | 0.00 | 12 | 918.3 |
| 20260507204116 | 91 | 288 | 1.0 | 6.0 | 0.00 | 0.00 | 0.00 | 12 | 918.2 |
| 20260507204011 | 91 | 22 | 1.0 | 6.0 | 0.00 | 0.00 | 0.00 | 12 | 918.3 |
| 20260507203905 | 91 | 334 | 2.0 | 6.0 | 0.00 | 0.00 | 0.00 | 12 | 918.3 |
| 20260507203543 | 91 | 23 | 2.0 | 6.0 | 0.00 | 0.00 | 0.00 | 12 | 918.3 |
| 20260507203218 | 92 | 52 | 2.0 | 9.0 | 0.00 | 0.00 | 0.00 | 12 | 918.3 |
| 20260507203113 | 92 | 18 | 2.0 | 9.0 | 0.00 | 0.00 | 0.00 | 12 | 918.4 |
| 20260507203007 | 92 | 293 | 2.0 | 9.0 | 0.00 | 0.00 | 0.00 | 13 | 918.3 |
| 20260507202643 | 92 | 11 | 2.0 | 9.0 | 0.00 | 0.00 | 0.00 | 12 | 918.4 |
| 20260507202538 | 92 | 350 | 2.0 | 9.0 | 0.00 | 0.00 | 0.00 | 13 | 918.4 |
| 20260507202217 | 92 | 5 | 2.0 | 9.0 | 0.00 | 0.00 | 0.00 | 12 | 918.4 |
| 20260507202109 | 92 | 5 | 2.0 | 9.0 | 0.00 | 0.00 | 0.00 | 12 | 918.4 |
| 20260507202003 | 92 | 287 | 3.0 | 9.0 | 0.00 | 0.00 | 0.00 | 13 | 918.4 |
| 20260507201858 | 91 | 0 | 3.0 | 9.0 | 0.00 | 0.00 | 0.00 | 12 | 918.4 |
| 20260507201750 | 91 | 281 | 3.0 | 9.0 | 0.00 | 0.00 | 0.00 | 13 | 918.4 |
| 20260507201646 | 92 | 298 | 2.0 | 9.0 | 0.00 | 0.00 | 0.00 | 12 | 918.5 |
| 20260507201539 | 92 | 293 | 2.0 | 9.0 | 0.00 | 0.00 | 0.00 | 13 | 918.5 |
| 20260507201435 | 91 | 301 | 2.0 | 9.0 | 0.00 | 0.00 | 0.00 | 13 | 918.5 |
| 20260507201333 | 91 | 245 | 2.0 | 9.0 | 0.00 | 0.00 | 0.00 | 13 | 918.4 |
| 20260507201229 | 91 | 217 | 1.0 | 7.0 | 0.00 | 0.00 | 0.00 | 13 | 918.4 |
| 20260507200906 | 91 | 254 | 1.0 | 5.0 | 0.00 | 0.00 | 0.00 | 13 | 918.5 |
| 20260507200803 | 91 | 311 | 1.0 | 5.0 | 0.00 | 0.00 | 0.00 | 13 | 918.5 |
| 20260507200701 | 91 | 229 | 1.0 | 5.0 | 0.00 | 0.00 | 0.00 | 13 | 918.5 |
| 20260507200557 | 91 | 324 | 1.0 | 5.0 | 0.00 | 0.00 | 0.00 | 13 | 918.5 |
| 20260507200452 | 91 | 26 | 1.0 | 5.0 | 0.00 | 0.00 | 0.00 | 14 | 918.5 |
| 20260507200348 | 91 | 322 | 1.0 | 5.0 | 0.00 | 0.00 | 0.00 | 13 | 918.5 |
| 20260507200241 | 91 | 28 | 1.0 | 7.0 | 0.00 | 0.00 | 0.00 | 13 | 918.6 |
| 20260507195659 | 90 | 177 | 2.0 | 7.0 | 0.00 | 0.00 | 0.00 | 14 | 918.6 |
| 20260507195554 | 90 | 105 | 2.0 | 7.0 | 0.00 | 0.00 | 0.00 | 13 | 918.6 |
| 20260507195449 | 90 | 74 | 2.0 | 7.0 | 0.00 | 0.00 | 0.00 | 13 | 918.7 |
| 20260507195125 | 91 | 247 | 2.0 | 8.0 | 0.00 | 0.00 | 0.00 | 14 | 918.7 |
| 20260507195019 | 90 | 225 | 1.0 | 8.0 | 0.00 | 0.00 | 0.00 | 14 | 918.8 |
| 20260507194916 | 90 | 208 | 1.0 | 8.0 | 0.00 | 0.00 | 0.00 | 14 | 918.8 |
| 20260507194812 | 90 | 269 | 1.0 | 8.0 | 0.00 | 0.00 | 0.00 | 13 | 918.8 |
| 20260507194705 | 90 | 322 | 1.0 | 8.0 | 0.00 | 0.00 | 0.00 | 14 | 918.8 |
| 20260507194601 | 90 | 230 | 0.0 | 8.0 | 0.00 | 0.00 | 0.00 | 14 | 918.8 |
| 20260507194457 | 90 | 294 | 0.0 | 8.0 | 0.00 | 0.00 | 0.00 | 14 | 918.9 |
| 20260507194350 | 90 | 345 | 0.0 | 8.0 | 0.00 | 0.00 | 0.00 | 14 | 918.9 |
| 20260507194247 | 90 | 148 | 1.0 | 8.0 | 0.00 | 0.00 | 0.00 | 14 | 918.9 |
| 20260507193928 | 90 | 240 | 2.0 | 8.0 | 0.00 | 0.00 | 0.00 | 14 | 918.8 |
| 20260507193823 | 90 | 212 | 2.0 | 8.0 | 0.00 | 0.00 | 0.00 | 14 | 918.9 |
| 20260507193721 | 90 | 178 | 2.0 | 8.0 | 0.00 | 0.00 | 0.00 | 14 | 919.0 |
| 20260507193617 | 90 | 220 | 2.0 | 8.0 | 0.00 | 0.00 | 0.00 | 14 | 919.0 |
| 20260507193511 | 90 | 245 | 2.0 | 8.0 | 0.00 | 0.00 | 0.00 | 14 | 919.0 |
| 20260507193405 | 90 | 173 | 2.0 | 8.0 | 0.00 | 0.00 | 0.00 | 15 | 919.0 |
| 20260507193300 | 89 | 230 | 1.0 | 6.0 | 0.00 | 0.00 | 0.00 | 15 | 919.0 |
| 20260507193155 | 89 | 331 | 1.0 | 6.0 | 0.00 | 0.00 | 0.00 | 14 | 919.0 |
| 20260507193049 | 89 | 291 | 1.0 | 8.0 | 0.00 | 0.00 | 0.00 | 14 | 919.0 |
| 20260507192943 | 89 | 199 | 0.0 | 8.0 | 0.00 | 0.00 | 0.00 | 15 | 919.0 |
| 20260507192837 | 89 | 245 | 0.0 | 8.0 | 0.00 | 0.00 | 0.00 | 15 | 919.1 |
| 20260507192735 | 89 | 292 | 0.0 | 8.0 | 0.00 | 0.00 | 0.00 | 15 | 919.1 |
| 20260507192631 | 89 | 340 | 0.0 | 8.0 | 0.00 | 0.00 | 0.00 | 15 | 919.1 |
| 20260507192529 | 89 | 339 | 0.0 | 8.0 | 0.00 | 0.00 | 0.00 | 15 | 919.1 |
| 20260507192422 | 89 | 78 | 0.0 | 8.0 | 0.00 | 0.00 | 0.00 | 15 | 919.1 |
| 20260507192318 | 89 | 46 | 1.0 | 8.0 | 0.00 | 0.00 | 0.00 | 15 | 919.1 |
| 20260507192215 | 89 | 5 | 1.0 | 8.0 | 0.00 | 0.00 | 0.00 | 15 | 919.1 |
| 20260507191633 | 89 | 247 | 2.0 | 8.0 | 0.00 | 0.00 | 0.00 | 15 | 919.3 |
| 20260507191528 | 89 | 225 | 2.0 | 8.0 | 0.00 | 0.00 | 0.00 | 15 | 919.3 |
| 20260507191423 | 89 | 184 | 2.0 | 8.0 | 0.00 | 0.00 | 0.00 | 15 | 919.4 |
| 20260507191059 | 88 | 240 | 0.0 | 4.0 | 0.00 | 0.00 | 0.00 | 15 | 919.4 |
| 20260507190736 | 88 | 182 | 0.0 | 9.0 | 0.00 | 0.00 | 0.00 | 15 | 919.5 |
| 20260507190635 | 88 | 173 | 1.0 | 9.0 | 0.00 | 0.00 | 0.00 | 15 | 919.5 |
| 20260507190530 | 88 | 173 | 1.0 | 9.0 | 0.00 | 0.00 | 0.00 | 15 | 919.5 |
| 20260507190426 | 88 | 175 | 1.0 | 9.0 | 0.00 | 0.00 | 0.00 | 15 | 919.6 |
| 20260507190322 | 88 | 211 | 1.0 | 9.0 | 0.00 | 0.00 | 0.00 | 15 | 919.6 |
| 20260507190217 | 88 | 309 | 2.0 | 9.0 | 0.00 | 0.00 | 0.00 | 15 | 919.7 |
| 20260507190112 | 88 | 313 | 2.0 | 9.0 | 0.00 | 0.00 | 0.00 | 15 | 919.6 |
| 20260507190005 | 88 | 309 | 2.0 | 9.0 | 0.00 | 0.00 | 0.00 | 16 | 919.7 |
| 20260507185858 | 88 | 301 | 3.0 | 9.0 | 0.00 | 0.00 | 0.00 | 16 | 919.7 |
| 20260507185755 | 88 | 288 | 3.0 | 9.0 | 0.00 | 0.00 | 0.00 | 15 | 919.7 |
| 20260507185651 | 88 | 258 | 2.0 | 9.0 | 0.00 | 0.00 | 0.00 | 16 | 919.7 |
| 20260507185549 | 89 | 313 | 2.0 | 9.0 | 0.00 | 0.00 | 0.00 | 16 | 919.7 |
| 20260507185442 | 89 | 320 | 2.0 | 9.0 | 0.00 | 0.00 | 0.00 | 15 | 919.7 |
| 20260507185118 | 89 | 217 | 2.0 | 9.0 | 0.00 | 0.00 | 0.00 | 15 | 919.8 |
| 20260507185011 | 89 | 234 | 1.0 | 9.0 | 0.00 | 0.00 | 0.00 | 15 | 919.8 |
| 20260507184647 | 89 | 301 | 1.0 | 8.0 | 0.00 | 0.00 | 0.00 | 15 | 919.7 |
| 20260507184542 | 89 | 344 | 1.0 | 8.0 | 0.00 | 0.00 | 0.00 | 16 | 919.8 |
| 20260507184437 | 88 | 238 | 1.0 | 8.0 | 0.00 | 0.00 | 0.00 | 16 | 919.8 |
| 20260507184332 | 88 | 268 | 1.0 | 8.0 | 0.00 | 0.00 | 0.00 | 16 | 919.8 |
| 20260507184230 | 88 | 294 | 1.0 | 8.0 | 0.00 | 0.00 | 0.00 | 16 | 919.8 |
| 20260507183901 | 88 | 234 | 2.0 | 8.0 | 0.00 | 0.00 | 0.00 | 16 | 919.8 |
| 20260507183757 | 88 | 150 | 2.0 | 8.0 | 0.00 | 0.00 | 0.00 | 16 | 919.9 |
| 20260507183649 | 88 | 181 | 2.0 | 8.0 | 0.00 | 0.00 | 0.00 | 16 | 919.9 |
| 20260507183543 | 88 | 272 | 2.0 | 8.0 | 0.00 | 0.00 | 0.00 | 16 | 919.9 |
| 20260507183435 | 88 | 255 | 2.0 | 8.0 | 0.00 | 0.00 | 0.00 | 16 | 919.8 |
| 20260507182852 | 88 | 276 | 1.0 | 5.0 | 0.00 | 0.00 | 0.00 | 16 | 919.9 |
| 20260507182528 | 88 | 238 | 1.0 | 4.0 | 0.00 | 0.00 | 0.00 | 16 | 919.8 |
| 20260507182420 | 88 | 232 | 1.0 | 4.0 | 0.00 | 0.00 | 0.00 | 16 | 919.9 |
| 20260507182053 | 88 | 219 | 0.0 | 4.0 | 0.00 | 0.00 | 0.00 | 16 | 920.0 |
| 20260507181951 | 87 | 311 | 0.0 | 4.0 | 0.00 | 0.00 | 0.00 | 16 | 920.0 |
| 20260507181847 | 87 | 323 | 0.0 | 4.0 | 0.00 | 0.00 | 0.00 | 16 | 920.0 |
| 20260507181744 | 87 | 53 | 0.0 | 4.0 | 0.00 | 0.00 | 0.00 | 18 | 920.0 |
| 20260507181637 | 87 | 312 | 0.0 | 4.0 | 0.00 | 0.00 | 0.00 | 17 | 920.0 |
| 20260507181529 | 87 | 318 | 0.0 | 4.0 | 0.00 | 0.00 | 0.00 | 17 | 920.0 |
| 20260507181424 | 87 | 183 | 1.0 | 4.0 | 0.00 | 0.00 | 0.00 | 17 | 920.1 |
| 20260507181318 | 87 | 245 | 1.0 | 3.0 | 0.00 | 0.00 | 0.00 | 17 | 920.0 |
| 20260507181210 | 87 | 282 | 1.0 | 3.0 | 0.00 | 0.00 | 0.00 | 17 | 920.0 |
| 20260507181105 | 86 | 238 | 1.0 | 3.0 | 0.00 | 0.00 | 0.00 | 17 | 920.1 |
| 20260507181001 | 86 | 285 | 1.0 | 3.0 | 0.00 | 0.00 | 0.00 | 17 | 920.1 |
| 20260507180854 | 86 | 287 | 1.0 | 3.0 | 0.00 | 0.00 | 0.00 | 17 | 920.1 |
| 20260507180528 | 86 | 306 | 0.0 | 3.0 | 0.00 | 0.00 | 0.00 | 17 | 920.1 |
| 20260507180421 | 86 | 235 | 0.0 | 3.0 | 0.00 | 0.00 | 0.00 | 18 | 920.2 |
| 20260507180319 | 86 | 294 | 0.0 | 2.0 | 0.00 | 0.00 | 0.00 | 18 | 920.2 |
| 20260507180212 | 86 | 243 | 0.0 | 6.0 | 0.00 | 0.00 | 0.00 | 18 | 920.2 |
| 20260507180109 | 85 | 299 | 0.0 | 6.0 | 0.00 | 0.00 | 0.00 | 18 | 920.2 |
| 20260507180004 | 85 | 298 | 0.0 | 6.0 | 0.00 | 0.00 | 0.00 | 18 | 920.2 |
| 20260507175902 | 85 | 227 | 0.0 | 6.0 | 0.00 | 0.00 | 0.00 | 18 | 920.2 |
| 20260507175316 | 85 | 333 | 1.0 | 6.0 | 0.00 | 0.00 | 0.00 | 18 | 920.3 |
| 20260507175210 | 85 | 295 | 1.0 | 6.0 | 0.00 | 0.00 | 0.00 | 17 | 920.3 |
| 20260507175107 | 85 | 17 | 1.0 | 6.0 | 0.00 | 0.00 | 0.00 | 17 | 920.3 |
| 20260507175003 | 85 | 163 | 1.0 | 6.0 | 0.00 | 0.00 | 0.00 | 17 | 920.2 |
| 20260507174856 | 85 | 227 | 1.0 | 6.0 | 0.00 | 0.00 | 0.00 | 17 | 920.3 |
| 20260507174749 | 85 | 271 | 1.0 | 6.0 | 0.00 | 0.00 | 0.00 | 18 | 920.3 |
| 20260507174646 | 85 | 221 | 1.0 | 6.0 | 0.00 | 0.00 | 0.00 | 17 | 920.3 |
| 20260507174322 | 85 | 232 | 1.0 | 6.0 | 0.00 | 0.00 | 0.00 | 18 | 920.4 |
| 20260507174221 | 85 | 223 | 0.0 | 6.0 | 0.00 | 0.00 | 0.00 | 18 | 920.4 |
| 20260507174115 | 85 | 221 | 1.0 | 5.0 | 0.00 | 0.00 | 0.00 | 18 | 920.3 |
| 20260507174008 | 84 | 290 | 1.0 | 5.0 | 0.00 | 0.00 | 0.00 | 18 | 920.4 |
| 20260507173902 | 84 | 329 | 1.0 | 5.0 | 0.00 | 0.00 | 0.00 | 18 | 920.3 |
| 20260507173538 | 84 | 200 | 1.0 | 5.0 | 0.00 | 0.00 | 0.00 | 18 | 920.4 |
| 20260507173432 | 84 | 200 | 1.0 | 5.0 | 0.00 | 0.00 | 0.00 | 18 | 920.4 |
| 20260507173327 | 84 | 203 | 1.0 | 5.0 | 0.00 | 0.00 | 0.00 | 18 | 920.4 |
| 20260507173219 | 84 | 219 | 1.0 | 5.0 | 0.00 | 0.00 | 0.00 | 19 | 920.4 |
| 20260507173116 | 84 | 236 | 0.0 | 5.0 | 0.00 | 0.00 | 0.00 | 19 | 920.4 |
| 20260507173013 | 84 | 278 | 0.0 | 3.0 | 0.00 | 0.00 | 0.00 | 19 | 920.4 |
| 20260507172907 | 83 | 286 | 1.0 | 3.0 | 0.00 | 0.00 | 0.00 | 19 | 920.4 |
| 20260507172800 | 83 | 300 | 0.0 | 3.0 | 0.00 | 0.00 | 0.00 | 20 | 920.4 |
| 20260507172658 | 83 | 250 | 1.0 | 3.0 | 0.00 | 0.00 | 0.00 | 19 | 920.4 |
| 20260507172556 | 83 | 269 | 1.0 | 3.0 | 0.00 | 0.00 | 0.00 | 19 | 920.5 |
| 20260507172450 | 83 | 282 | 1.0 | 3.0 | 0.00 | 0.00 | 0.00 | 19 | 920.5 |
| 20260507172123 | 83 | 333 | 1.0 | 5.0 | 0.00 | 0.00 | 0.00 | 19 | 920.5 |
| 20260507172016 | 83 | 355 | 1.0 | 5.0 | 0.00 | 0.00 | 0.00 | 19 | 920.5 |
| 20260507171913 | 83 | 307 | 1.0 | 5.0 | 0.00 | 0.00 | 0.00 | 19 | 920.5 |
| 20260507171547 | 83 | 242 | 0.0 | 5.0 | 0.00 | 0.00 | 0.00 | 19 | 920.5 |
| 20260507171441 | 82 | 323 | 0.0 | 5.0 | 0.00 | 0.00 | 0.00 | 19 | 920.5 |
| 20260507171337 | 82 | 291 | 0.0 | 5.0 | 0.00 | 0.00 | 0.00 | 19 | 920.5 |
| 20260507171233 | 82 | 294 | 1.0 | 5.0 | 0.00 | 0.00 | 0.00 | 19 | 920.5 |
| 20260507170651 | 82 | 231 | 1.0 | 5.0 | 0.00 | 0.00 | 0.00 | 20 | 920.6 |
| 20260507170546 | 82 | 252 | 1.0 | 5.0 | 0.00 | 0.00 | 0.00 | 20 | 920.6 |
| 20260507170441 | 82 | 268 | 1.0 | 5.0 | 0.00 | 0.00 | 0.00 | 19 | 920.6 |
| 20260507165632 | 81 | 244 | 0.0 | 5.0 | 0.00 | 0.00 | 0.00 | 21 | 920.7 |
| 20260507165308 | 81 | 350 | 0.0 | 5.0 | 0.00 | 0.00 | 0.00 | 20 | 920.7 |
| 20260507165201 | 80 | 306 | 1.0 | 5.0 | 0.00 | 0.00 | 0.00 | 20 | 920.7 |
| 20260507164834 | 80 | 311 | 1.0 | 5.0 | 0.00 | 0.00 | 0.00 | 21 | 920.7 |
| 20260507164727 | 80 | 292 | 1.0 | 5.0 | 0.00 | 0.00 | 0.00 | 21 | 920.7 |
| 20260507164621 | 80 | 284 | 1.0 | 5.0 | 0.00 | 0.00 | 0.00 | 21 | 920.7 |
| 20260507164515 | 80 | 294 | 1.0 | 5.0 | 0.00 | 0.00 | 0.00 | 21 | 920.7 |
| 20260507164412 | 80 | 331 | 0.0 | 5.0 | 0.00 | 0.00 | 0.00 | 22 | 920.7 |
| 20260507164306 | 80 | 281 | 0.0 | 5.0 | 0.00 | 0.00 | 0.00 | 21 | 920.7 |
| 20260507164203 | 80 | 271 | 0.0 | 5.0 | 0.00 | 0.00 | 0.00 | 22 | 920.7 |
| 20260507164100 | 80 | 336 | 0.0 | 5.0 | 0.00 | 0.00 | 0.00 | 22 | 920.7 |
| 20260507163954 | 80 | 304 | 0.0 | 5.0 | 0.00 | 0.00 | 0.00 | 22 | 920.7 |
| 20260507163624 | 79 | 259 | 0.0 | 3.0 | 0.00 | 0.00 | 0.00 | 22 | 920.8 |
| 20260507163518 | 79 | 284 | 0.0 | 3.0 | 0.00 | 0.00 | 0.00 | 23 | 920.8 |
| 20260507163414 | 79 | 267 | 1.0 | 3.0 | 0.00 | 0.00 | 0.00 | 22 | 920.8 |
| 20260507163308 | 79 | 284 | 1.0 | 3.0 | 0.00 | 0.00 | 0.00 | 22 | 920.8 |
| 20260507163203 | 79 | 300 | 1.0 | 3.0 | 0.00 | 0.00 | 0.00 | 23 | 920.9 |
| 20260507163056 | 79 | 296 | 1.0 | 3.0 | 0.00 | 0.00 | 0.00 | 22 | 920.8 |
| 20260507162729 | 78 | 290 | 1.0 | 3.0 | 0.00 | 0.00 | 0.00 | 23 | 920.9 |
| 20260507162621 | 78 | 227 | 1.0 | 3.0 | 0.00 | 0.00 | 0.00 | 24 | 921.0 |
| 20260507162519 | 78 | 244 | 1.0 | 3.0 | 0.00 | 0.00 | 0.00 | 23 | 920.9 |
| 20260507162411 | 78 | 249 | 1.0 | 3.0 | 0.00 | 0.00 | 0.00 | 23 | 920.9 |
| 20260507162307 | 78 | 240 | 1.0 | 3.0 | 0.00 | 0.00 | 0.00 | 23 | 920.9 |
| 20260507162158 | 78 | 239 | 0.0 | 3.0 | 0.00 | 0.00 | 0.00 | 22 | 920.9 |
| 20260507162052 | 78 | 248 | 0.0 | 3.0 | 0.00 | 0.00 | 0.00 | 23 | 920.9 |
| 20260507161947 | 78 | 274 | 0.0 | 3.0 | 0.00 | 0.00 | 0.00 | 23 | 920.9 |
| 20260507161842 | 78 | 242 | 0.0 | 3.0 | 0.00 | 0.00 | 0.00 | 23 | 921.0 |
| 20260507161516 | 77 | 283 | 0.0 | 3.0 | 0.00 | 0.00 | 0.00 | 24 | 920.9 |
| 20260507161409 | 77 | 263 | 0.0 | 3.0 | 0.00 | 0.00 | 0.00 | 24 | 920.9 |
| 20260507161306 | 77 | 270 | 0.0 | 3.0 | 0.00 | 0.00 | 0.00 | 24 | 920.9 |
| 20260507161204 | 77 | 270 | 0.0 | 3.0 | 0.00 | 0.00 | 0.00 | 23 | 921.0 |
| 20260507161059 | 77 | 291 | 0.0 | 2.0 | 0.00 | 0.00 | 0.00 | 23 | 921.0 |
| 20260507160956 | 77 | 287 | 0.0 | 2.0 | 0.00 | 0.00 | 0.00 | 24 | 920.9 |
| 20260507160849 | 76 | 287 | 0.0 | 2.0 | 0.00 | 0.00 | 0.00 | 24 | 921.0 |
| 20260507160744 | 76 | 280 | 0.0 | 2.0 | 0.00 | 0.00 | 0.00 | 25 | 921.0 |
| 20260507160640 | 76 | 291 | 0.0 | 2.0 | 0.00 | 0.00 | 0.00 | 25 | 921.0 |
| 20260507160533 | 76 | 302 | 0.0 | 2.0 | 0.00 | 0.00 | 0.00 | 24 | 921.0 |
| 20260507160426 | 76 | 346 | 0.0 | 3.0 | 0.00 | 0.00 | 0.00 | 25 | 921.0 |
| 20260507160321 | 76 | 274 | 0.0 | 3.0 | 0.00 | 0.00 | 0.00 | 25 | 921.0 |
| 20260507160216 | 76 | 304 | 0.0 | 3.0 | 0.00 | 0.00 | 0.00 | 25 | 921.0 |
| 20260507160110 | 76 | 300 | 1.0 | 3.0 | 0.00 | 0.00 | 0.00 | 25 | 921.1 |
| 20260507160003 | 76 | 286 | 0.0 | 3.0 | 0.00 | 0.00 | 0.00 | 25 | 921.0 |
| 20260507155857 | 75 | 240 | 1.0 | 3.0 | 0.00 | 0.00 | 0.00 | 25 | 921.1 |
| 20260507155755 | 75 | 306 | 1.0 | 3.0 | 0.00 | 0.00 | 0.00 | 24 | 921.1 |
| 20260507155648 | 75 | 350 | 1.0 | 3.0 | 0.00 | 0.00 | 0.00 | 25 | 921.1 |
| 20260507155543 | 75 | 342 | 1.0 | 3.0 | 0.00 | 0.00 | 0.00 | 25 | 921.1 |
| 20260507155438 | 75 | 275 | 1.0 | 3.0 | 0.00 | 0.00 | 0.00 | 26 | 921.1 |
| 20260507155335 | 75 | 284 | 1.0 | 3.0 | 0.00 | 0.00 | 0.00 | 26 | 921.2 |
| 20260507155230 | 75 | 269 | 0.0 | 3.0 | 0.00 | 0.00 | 0.00 | 26 | 921.1 |
| 20260507154906 | 74 | 327 | 0.0 | 3.0 | 0.00 | 0.00 | 0.00 | 25 | 921.2 |
| 20260507154803 | 74 | 344 | 0.0 | 3.0 | 0.00 | 0.00 | 0.00 | 25 | 921.2 |
| 20260507154655 | 74 | 355 | 0.0 | 3.0 | 0.00 | 0.00 | 0.00 | 27 | 921.2 |
| 20260507154549 | 74 | 308 | 0.0 | 3.0 | 0.00 | 0.00 | 0.00 | 26 | 921.2 |
| 20260507154447 | 74 | 294 | 0.0 | 3.0 | 0.00 | 0.00 | 0.00 | 26 | 921.2 |
| 20260507154343 | 74 | 288 | 0.0 | 3.0 | 0.00 | 0.00 | 0.00 | 26 | 921.2 |
| 20260507154239 | 74 | 265 | 0.0 | 3.0 | 0.00 | 0.00 | 0.00 | 26 | 921.2 |
| 20260507154133 | 74 | 284 | 0.0 | 3.0 | 0.00 | 0.00 | 0.00 | 27 | 921.2 |
| 20260507153808 | 73 | 265 | 0.0 | 3.0 | 0.00 | 0.00 | 0.00 | 27 | 921.2 |
| 20260507153701 | 73 | 302 | 0.0 | 3.0 | 0.00 | 0.00 | 0.00 | 27 | 921.2 |
| 20260507153558 | 73 | 301 | 0.0 | 3.0 | 0.00 | 0.00 | 0.00 | 27 | 921.2 |
| 20260507153451 | 73 | 304 | 0.0 | 2.0 | 0.00 | 0.00 | 0.00 | 27 | 921.2 |
| 20260507153345 | 73 | 288 | 0.0 | 2.0 | 0.00 | 0.00 | 0.00 | 28 | 921.2 |
| 20260507153239 | 73 | 235 | 0.0 | 2.0 | 0.00 | 0.00 | 0.00 | 29 | 921.2 |
| 20260507153133 | 72 | 270 | 0.0 | 2.0 | 0.00 | 0.00 | 0.00 | 29 | 921.2 |
| 20260507152809 | 72 | 284 | 0.0 | 3.0 | 0.00 | 0.00 | 0.00 | 28 | 921.2 |
| 20260507152703 | 72 | 240 | 0.0 | 3.0 | 0.00 | 0.00 | 0.00 | 28 | 921.2 |
| 20260507152602 | 72 | 259 | 0.0 | 3.0 | 0.00 | 0.00 | 0.00 | 28 | 921.2 |
| 20260507152455 | 71 | 258 | 0.0 | 3.0 | 0.00 | 0.00 | 0.00 | 28 | 921.3 |
| 20260507152350 | 71 | 243 | 0.0 | 3.0 | 0.00 | 0.00 | 0.00 | 28 | 921.2 |
| 20260507152247 | 71 | 238 | 0.0 | 3.0 | 0.00 | 0.00 | 0.00 | 28 | 921.2 |
| 20260507152144 | 71 | 323 | 0.0 | 3.0 | 0.00 | 0.00 | 0.00 | 29 | 921.2 |
| 20260507152041 | 71 | 323 | 0.0 | 3.0 | 0.00 | 0.00 | 0.00 | 29 | 921.2 |
| 20260507151235 | 70 | 256 | 1.0 | 3.0 | 0.00 | 0.00 | 0.00 | 28 | 921.2 |
| 20260507150218 | 69 | 243 | 1.0 | 3.0 | 0.00 | 0.00 | 0.00 | 29 | 921.2 |
| 20260507150113 | 69 | 237 | 1.0 | 3.0 | 0.00 | 0.00 | 0.00 | 30 | 921.2 |
| 20260507150009 | 69 | 243 | 1.0 | 3.0 | 0.00 | 0.00 | 0.00 | 30 | 921.2 |
| 20260507145905 | 69 | 242 | 1.0 | 3.0 | 0.00 | 0.00 | 0.00 | 29 | 921.2 |
| 20260507145800 | 69 | 229 | 1.0 | 3.0 | 0.00 | 0.00 | 0.00 | 29 | 921.2 |
| 20260507145216 | 69 | 213 | 1.0 | 3.0 | 0.00 | 0.00 | 0.00 | 30 | 921.2 |
| 20260507144854 | 68 | 233 | 1.0 | 3.0 | 0.00 | 0.00 | 0.00 | 30 | 921.2 |
| 20260507144528 | 68 | 213 | 0.0 | 3.0 | 0.00 | 0.00 | 0.00 | 30 | 921.2 |
| 20260507144423 | 68 | 244 | 0.0 | 3.0 | 0.00 | 0.00 | 0.00 | 31 | 921.2 |
| 20260507144316 | 68 | 244 | 1.0 | 3.0 | 0.00 | 0.00 | 0.00 | 30 | 921.2 |
| 20260507144208 | 68 | 217 | 1.0 | 3.0 | 0.00 | 0.00 | 0.00 | 31 | 921.1 |
| 20260507144104 | 68 | 232 | 1.0 | 3.0 | 0.00 | 0.00 | 0.00 | 31 | 921.2 |
| 20260507143959 | 68 | 239 | 1.0 | 3.0 | 0.00 | 0.00 | 0.00 | 32 | 921.2 |
| 20260507143629 | 68 | 241 | 1.0 | 3.0 | 0.00 | 0.00 | 0.00 | 33 | 921.1 |
| 20260507143523 | 67 | 241 | 1.0 | 3.0 | 0.00 | 0.00 | 0.00 | 32 | 921.2 |
| 20260507143418 | 67 | 224 | 1.0 | 3.0 | 0.00 | 0.00 | 0.00 | 32 | 921.2 |
| 20260507143315 | 67 | 240 | 1.0 | 3.0 | 0.00 | 0.00 | 0.00 | 32 | 921.1 |
| 20260507143212 | 67 | 233 | 1.0 | 3.0 | 0.00 | 0.00 | 0.00 | 31 | 921.2 |
| 20260507142632 | 67 | 235 | 1.0 | 3.0 | 0.00 | 0.00 | 0.00 | 33 | 921.2 |
| 20260507142524 | 67 | 260 | 1.0 | 2.0 | 0.00 | 0.00 | 0.00 | 33 | 921.2 |
| 20260507142200 | 66 | 241 | 1.0 | 2.0 | 0.00 | 0.00 | 0.00 | 33 | 921.2 |
| 20260507142057 | 66 | 234 | 1.0 | 2.0 | 0.00 | 0.00 | 0.00 | 34 | 921.1 |
| 20260507141950 | 66 | 228 | 1.0 | 2.0 | 0.00 | 0.00 | 0.00 | 33 | 921.2 |
| 20260507141842 | 66 | 250 | 1.0 | 2.0 | 0.00 | 0.00 | 0.00 | 33 | 921.1 |
| 20260507141520 | 65 | 241 | 0.0 | 2.0 | 0.00 | 0.00 | 0.00 | 33 | 921.1 |
| 20260507141417 | 65 | 241 | 0.0 | 2.0 | 0.00 | 0.00 | 0.00 | 34 | 921.1 |
| 20260507141312 | 65 | 242 | 0.0 | 2.0 | 0.00 | 0.00 | 0.00 | 34 | 921.1 |
| 20260507141210 | 65 | 248 | 0.0 | 1.0 | 0.00 | 0.00 | 0.00 | 34 | 921.0 |
| 20260507140844 | 64 | 284 | 0.0 | 1.0 | 0.00 | 0.00 | 0.00 | 35 | 921.1 |
| 20260507140739 | 64 | 290 | 0.0 | 1.0 | 0.00 | 0.00 | 0.00 | 35 | 921.0 |
| 20260507140634 | 64 | 295 | 0.0 | 1.0 | 0.00 | 0.00 | 0.00 | 36 | 921.0 |
| 20260507140527 | 64 | 295 | 0.0 | 1.0 | 0.00 | 0.00 | 0.00 | 36 | 921.0 |
| 20260507140421 | 63 | 332 | 0.0 | 0.0 | 0.00 | 0.00 | 0.00 | 36 | 921.0 |
| 20260507140314 | 63 | 332 | 0.0 | 0.0 | 0.00 | 0.00 | 0.00 | 36 | 921.0 |
| 20260507140208 | 63 | 332 | 0.0 | 0.0 | 0.00 | 0.00 | 0.00 | 36 | 921.0 |
| 20260507140101 | 63 | 332 | 0.0 | 1.0 | 0.00 | 0.00 | 0.00 | 36 | 921.0 |
| 20260507135740 | 63 | 355 | 0.0 | 0.0 | 0.00 | 0.00 | 0.00 | 38 | 920.9 |
| 20260507135637 | 62 | 355 | 0.0 | 0.0 | 0.00 | 0.00 | 0.00 | 38 | 921.0 |
| 20260507135535 | 62 | 355 | 0.0 | 0.0 | 0.00 | 0.00 | 0.00 | 38 | 920.9 |
| 20260507135431 | 62 | 355 | 0.0 | 0.0 | 0.00 | 0.00 | 0.00 | 38 | 920.9 |
| 20260507135324 | 62 | 355 | 0.0 | 0.0 | 0.00 | 0.00 | 0.00 | 38 | 920.9 |
| 20260507135004 | 62 | 355 | 0.0 | 0.0 | 0.00 | 0.00 | 0.00 | 37 | 920.9 |
| 20260507134901 | 61 | 355 | 0.0 | 0.0 | 0.00 | 0.00 | 0.00 | 37 | 920.9 |
| 20260507134755 | 61 | 355 | 0.0 | 0.0 | 0.00 | 0.00 | 0.00 | 37 | 920.9 |
| 20260507134649 | 61 | 355 | 0.0 | 0.0 | 0.00 | 0.00 | 0.00 | 37 | 920.9 |
| 20260507134545 | 61 | 355 | 0.0 | 0.0 | 0.00 | 0.00 | 0.00 | 37 | 920.9 |
| 20260507134218 | 61 | 355 | 0.0 | 0.0 | 0.00 | 0.00 | 0.00 | 37 | 920.9 |
| 20260507133854 | 60 | 355 | 0.0 | 0.0 | 0.00 | 0.00 | 0.00 | 38 | 920.8 |
| 20260507133747 | 60 | 355 | 0.0 | 0.0 | 0.00 | 0.00 | 0.00 | 37 | 920.8 |
| 20260507133645 | 60 | 355 | 0.0 | 2.0 | 0.00 | 0.00 | 0.00 | 37 | 920.8 |
| 20260507133541 | 60 | 355 | 0.0 | 2.0 | 0.00 | 0.00 | 0.00 | 37 | 920.8 |
| 20260507133437 | 60 | 355 | 0.0 | 2.0 | 0.00 | 0.00 | 0.00 | 37 | 920.8 |
| 20260507133112 | 60 | 355 | 0.0 | 2.0 | 0.00 | 0.00 | 0.00 | 37 | 920.7 |
| 20260507133004 | 60 | 355 | 0.0 | 2.0 | 0.00 | 0.00 | 0.00 | 37 | 920.8 |
| 20260507132857 | 60 | 355 | 0.0 | 2.0 | 0.00 | 0.00 | 0.00 | 37 | 920.7 |
| 20260507132753 | 60 | 355 | 0.0 | 2.0 | 0.00 | 0.00 | 0.00 | 37 | 920.8 |
| 20260507132648 | 60 | 355 | 0.0 | 2.0 | 0.00 | 0.00 | 0.00 | 38 | 920.8 |
| 20260507132543 | 60 | 355 | 0.0 | 2.0 | 0.00 | 0.00 | 0.00 | 38 | 920.7 |
| 20260507132435 | 60 | 5 | 0.0 | 2.0 | 0.00 | 0.00 | 0.00 | 38 | 920.7 |
| 20260507132332 | 60 | 5 | 0.0 | 2.0 | 0.00 | 0.00 | 0.00 | 38 | 920.7 |
| 20260507132007 | 60 | 11 | 0.0 | 1.0 | 0.00 | 0.00 | 0.00 | 38 | 920.7 |
| 20260507131905 | 60 | 355 | 0.0 | 1.0 | 0.00 | 0.00 | 0.00 | 38 | 920.7 |
| 20260507131758 | 59 | 5 | 0.0 | 1.0 | 0.00 | 0.00 | 0.00 | 38 | 920.7 |
| 20260507131652 | 59 | 5 | 0.0 | 1.0 | 0.00 | 0.00 | 0.00 | 38 | 920.7 |
| 20260507131325 | 59 | 355 | 0.0 | 1.0 | 0.00 | 0.00 | 0.00 | 38 | 920.6 |
| 20260507131219 | 59 | 355 | 0.0 | 1.0 | 0.00 | 0.00 | 0.00 | 38 | 920.7 |
| 20260507131112 | 59 | 355 | 0.0 | 1.0 | 0.00 | 0.00 | 0.00 | 38 | 920.6 |
| 20260507131010 | 59 | 355 | 0.0 | 1.0 | 0.00 | 0.00 | 0.00 | 38 | 920.7 |
| 20260507130906 | 59 | 355 | 0.0 | 0.0 | 0.00 | 0.00 | 0.00 | 38 | 920.7 |
| 20260507130540 | 59 | 355 | 0.0 | 0.0 | 0.00 | 0.00 | 0.00 | 38 | 920.6 |
| 20260507130435 | 59 | 355 | 0.0 | 0.0 | 0.00 | 0.00 | 0.00 | 38 | 920.6 |
| 20260507130329 | 59 | 355 | 0.0 | 0.0 | 0.00 | 0.00 | 0.00 | 37 | 920.6 |
| 20260507130008 | 59 | 355 | 0.0 | 0.0 | 0.00 | 0.00 | 0.00 | 37 | 920.6 |
| 20260507125904 | 59 | 355 | 0.0 | 1.0 | 0.00 | 0.00 | 0.00 | 37 | 920.6 |
| 20260507125800 | 59 | 355 | 0.0 | 1.0 | 0.00 | 0.00 | 0.00 | 37 | 920.6 |
| 20260507125653 | 59 | 355 | 0.0 | 1.0 | 0.00 | 0.00 | 0.00 | 37 | 920.6 |
| 20260507125551 | 59 | 355 | 0.0 | 1.0 | 0.00 | 0.00 | 0.00 | 37 | 920.6 |
| 20260507125448 | 59 | 355 | 0.0 | 1.0 | 0.00 | 0.00 | 0.00 | 37 | 920.5 |
| 20260507125127 | 59 | 355 | 0.0 | 1.0 | 0.00 | 0.00 | 0.00 | 37 | 920.5 |
| 20260507125023 | 59 | 355 | 0.0 | 1.0 | 0.00 | 0.00 | 0.00 | 37 | 920.6 |
| 20260507124921 | 59 | 355 | 0.0 | 0.0 | 0.00 | 0.00 | 0.00 | 37 | 920.5 |
| 20260507124558 | 59 | 355 | 0.0 | 1.0 | 0.00 | 0.00 | 0.00 | 38 | 920.6 |
| 20260507124451 | 59 | 355 | 0.0 | 1.0 | 0.00 | 0.00 | 0.00 | 37 | 920.5 |
| 20260507124347 | 59 | 355 | 0.0 | 1.0 | 0.00 | 0.00 | 0.00 | 37 | 920.5 |
| 20260507124244 | 59 | 355 | 0.0 | 1.0 | 0.00 | 0.00 | 0.00 | 37 | 920.5 |
| 20260507124138 | 59 | 355 | 0.0 | 1.0 | 0.00 | 0.00 | 0.00 | 37 | 920.5 |
| 20260507124031 | 59 | 355 | 0.0 | 1.0 | 0.00 | 0.00 | 0.00 | 37 | 920.5 |
| 20260507123923 | 59 | 355 | 0.0 | 1.0 | 0.00 | 0.00 | 0.00 | 37 | 920.5 |
| 20260507123820 | 59 | 355 | 0.0 | 1.0 | 0.00 | 0.00 | 0.00 | 37 | 920.5 |
| 20260507123717 | 59 | 355 | 0.0 | 0.0 | 0.00 | 0.00 | 0.00 | 37 | 920.5 |
| 20260507123610 | 59 | 355 | 0.0 | 0.0 | 0.00 | 0.00 | 0.00 | 37 | 920.5 |
| 20260507123244 | 59 | 355 | 0.0 | 1.0 | 0.00 | 0.00 | 0.00 | 37 | 920.5 |
| 20260507123137 | 59 | 355 | 0.0 | 1.0 | 0.00 | 0.00 | 0.00 | 37 | 920.4 |
| 20260507123036 | 59 | 355 | 0.0 | 1.0 | 0.00 | 0.00 | 0.00 | 37 | 920.5 |
| 20260507122930 | 59 | 355 | 0.0 | 1.0 | 0.00 | 0.00 | 0.00 | 37 | 920.5 |
| 20260507122823 | 59 | 355 | 0.0 | 1.0 | 0.00 | 0.00 | 0.00 | 37 | 920.5 |
| 20260507122715 | 59 | 355 | 0.0 | 1.0 | 0.00 | 0.00 | 0.00 | 37 | 920.4 |
| 20260507122611 | 59 | 355 | 0.0 | 1.0 | 0.00 | 0.00 | 0.00 | 37 | 920.5 |
| 20260507122503 | 59 | 355 | 0.0 | 1.0 | 0.00 | 0.00 | 0.00 | 37 | 920.4 |
| 20260507122358 | 60 | 355 | 0.0 | 1.0 | 0.00 | 0.00 | 0.00 | 37 | 920.4 |
| 20260507122255 | 60 | 355 | 0.0 | 1.0 | 0.00 | 0.00 | 0.00 | 37 | 920.4 |
| 20260507122149 | 60 | 355 | 0.0 | 1.0 | 0.00 | 0.00 | 0.00 | 37 | 920.4 |
| 20260507122045 | 60 | 355 | 0.0 | 1.0 | 0.00 | 0.00 | 0.00 | 37 | 920.4 |
| 20260507121939 | 60 | 355 | 0.0 | 1.0 | 0.00 | 0.00 | 0.00 | 37 | 920.4 |
| 20260507121833 | 60 | 355 | 0.0 | 0.0 | 0.00 | 0.00 | 0.00 | 37 | 920.4 |
| 20260507121727 | 60 | 355 | 0.0 | 0.0 | 0.00 | 0.00 | 0.00 | 37 | 920.4 |
| 20260507121620 | 60 | 355 | 0.0 | 0.0 | 0.00 | 0.00 | 0.00 | 37 | 920.4 |
| 20260507121515 | 60 | 355 | 0.0 | 0.0 | 0.00 | 0.00 | 0.00 | 36 | 920.4 |
| 20260507121153 | 60 | 355 | 0.0 | 0.0 | 0.00 | 0.00 | 0.00 | 36 | 920.4 |
| 20260507121048 | 60 | 355 | 0.0 | 0.0 | 0.00 | 0.00 | 0.00 | 36 | 920.4 |
| 20260507120945 | 60 | 355 | 0.0 | 0.0 | 0.00 | 0.00 | 0.00 | 36 | 920.4 |
| 20260507120841 | 60 | 355 | 0.0 | 0.0 | 0.00 | 0.00 | 0.00 | 36 | 920.4 |
| 20260507120734 | 60 | 355 | 0.0 | 0.0 | 0.00 | 0.00 | 0.00 | 36 | 920.4 |
| 20260507120626 | 60 | 355 | 0.0 | 1.0 | 0.00 | 0.00 | 0.00 | 36 | 920.4 |
| 20260507120520 | 60 | 355 | 0.0 | 1.0 | 0.00 | 0.00 | 0.00 | 36 | 920.4 |
| 20260507120418 | 60 | 355 | 0.0 | 1.0 | 0.00 | 0.00 | 0.00 | 36 | 920.4 |
| 20260507120055 | 60 | 355 | 0.0 | 1.0 | 0.00 | 0.00 | 0.00 | 36 | 920.4 |
| 20260507115948 | 60 | 355 | 0.0 | 1.0 | 0.00 | 0.00 | 0.00 | 36 | 920.4 |
| 20260507115843 | 60 | 355 | 0.0 | 1.0 | 0.00 | 0.00 | 0.00 | 36 | 920.4 |
| 20260507115740 | 60 | 355 | 0.0 | 1.0 | 0.00 | 0.00 | 0.00 | 36 | 920.4 |
| 20260507115157 | 60 | 355 | 0.0 | 1.0 | 0.00 | 0.00 | 0.00 | 36 | 920.4 |
| 20260507115049 | 60 | 355 | 0.0 | 1.0 | 0.00 | 0.00 | 0.00 | 36 | 920.4 |
| 20260507114947 | 60 | 355 | 0.0 | 1.0 | 0.00 | 0.00 | 0.00 | 36 | 920.4 |
| 20260507114844 | 60 | 355 | 0.0 | 1.0 | 0.00 | 0.00 | 0.00 | 36 | 920.4 |
| 20260507114740 | 60 | 355 | 0.0 | 1.0 | 0.00 | 0.00 | 0.00 | 36 | 920.4 |
| 20260507114635 | 60 | 355 | 0.0 | 1.0 | 0.00 | 0.00 | 0.00 | 36 | 920.4 |
| 20260507114311 | 60 | 355 | 0.0 | 1.0 | 0.00 | 0.00 | 0.00 | 36 | 920.3 |
| 20260507114208 | 60 | 355 | 0.0 | 1.0 | 0.00 | 0.00 | 0.00 | 36 | 920.3 |
| 20260507114101 | 60 | 355 | 0.0 | 1.0 | 0.00 | 0.00 | 0.00 | 36 | 920.3 |
| 20260507113959 | 60 | 355 | 0.0 | 1.0 | 0.00 | 0.00 | 0.00 | 36 | 920.3 |
| 20260507113853 | 60 | 355 | 0.0 | 1.0 | 0.00 | 0.00 | 0.00 | 36 | 920.4 |
| 20260507113749 | 60 | 355 | 0.0 | 1.0 | 0.00 | 0.00 | 0.00 | 36 | 920.4 |
| 20260507113645 | 60 | 355 | 0.0 | 1.0 | 0.00 | 0.00 | 0.00 | 36 | 920.3 |
| 20260507113541 | 60 | 355 | 0.0 | 1.0 | 0.00 | 0.00 | 0.00 | 36 | 920.4 |
| 20260507113434 | 60 | 355 | 0.0 | 1.0 | 0.00 | 0.00 | 0.00 | 36 | 920.4 |
| 20260507113108 | 60 | 355 | 0.0 | 0.0 | 0.00 | 0.00 | 0.00 | 36 | 920.4 |
| 20260507113001 | 60 | 355 | 0.0 | 0.0 | 0.00 | 0.00 | 0.00 | 36 | 920.4 |
| 20260507112853 | 60 | 355 | 0.0 | 0.0 | 0.00 | 0.00 | 0.00 | 36 | 920.4 |
| 20260507112747 | 60 | 355 | 0.0 | 0.0 | 0.00 | 0.00 | 0.00 | 36 | 920.4 |
| 20260507112641 | 60 | 355 | 0.0 | 0.0 | 0.00 | 0.00 | 0.00 | 36 | 920.4 |
| 20260507112538 | 60 | 355 | 0.0 | 0.0 | 0.00 | 0.00 | 0.00 | 36 | 920.4 |
| 20260507112214 | 60 | 355 | 0.0 | 0.0 | 0.00 | 0.00 | 0.00 | 36 | 920.3 |
| 20260507112107 | 60 | 355 | 0.0 | 0.0 | 0.00 | 0.00 | 0.00 | 36 | 920.3 |
| 20260507112004 | 60 | 355 | 0.0 | 0.0 | 0.00 | 0.00 | 0.00 | 36 | 920.3 |
| 20260507111638 | 60 | 355 | 0.0 | 0.0 | 0.00 | 0.00 | 0.00 | 36 | 920.3 |
| 20260507111533 | 60 | 355 | 0.0 | 0.0 | 0.00 | 0.00 | 0.00 | 36 | 920.3 |
| 20260507111427 | 60 | 355 | 0.0 | 2.0 | 0.00 | 0.00 | 0.00 | 36 | 920.3 |
| 20260507111107 | 60 | 355 | 0.0 | 2.0 | 0.00 | 0.00 | 0.00 | 36 | 920.3 |
| 20260507110739 | 60 | 355 | 0.0 | 2.0 | 0.00 | 0.00 | 0.00 | 36 | 920.3 |
| 20260507110633 | 60 | 355 | 0.0 | 2.0 | 0.00 | 0.00 | 0.00 | 36 | 920.3 |
| 20260507110304 | 60 | 11 | 0.0 | 2.0 | 0.00 | 0.00 | 0.00 | 36 | 920.4 |
| 20260507110158 | 60 | 14 | 0.0 | 2.0 | 0.00 | 0.00 | 0.00 | 36 | 920.3 |
| 20260507105827 | 60 | 5 | 0.0 | 1.0 | 0.00 | 0.00 | 0.00 | 36 | 920.4 |
| 20260507105721 | 60 | 5 | 0.0 | 1.0 | 0.00 | 0.00 | 0.00 | 36 | 920.4 |
| 20260507105616 | 60 | 355 | 0.0 | 1.0 | 0.00 | 0.00 | 0.00 | 36 | 920.3 |
| 20260507105510 | 60 | 355 | 0.0 | 1.0 | 0.00 | 0.00 | 0.00 | 36 | 920.4 |
| 20260507105402 | 60 | 355 | 0.0 | 1.0 | 0.00 | 0.00 | 0.00 | 36 | 920.4 |
| 20260507105257 | 60 | 355 | 0.0 | 1.0 | 0.00 | 0.00 | 0.00 | 36 | 920.4 |
| 20260507104928 | 60 | 355 | 0.0 | 1.0 | 0.00 | 0.00 | 0.00 | 36 | 920.3 |
| 20260507104822 | 60 | 355 | 0.0 | 1.0 | 0.00 | 0.00 | 0.00 | 36 | 920.4 |
| 20260507104715 | 60 | 355 | 0.0 | 1.0 | 0.00 | 0.00 | 0.00 | 36 | 920.3 |
| 20260507104610 | 60 | 350 | 0.0 | 1.0 | 0.00 | 0.00 | 0.00 | 36 | 920.4 |
| 20260507104504 | 60 | 350 | 0.0 | 1.0 | 0.00 | 0.00 | 0.00 | 36 | 920.4 |
| 20260507104358 | 60 | 350 | 0.0 | 1.0 | 0.00 | 0.00 | 0.00 | 36 | 920.4 |
| 20260507104252 | 60 | 355 | 0.0 | 1.0 | 0.00 | 0.00 | 0.00 | 36 | 920.4 |
| 20260507104145 | 60 | 355 | 0.0 | 1.0 | 0.00 | 0.00 | 0.00 | 36 | 920.4 |
| 20260507104040 | 60 | 355 | 0.0 | 1.0 | 0.00 | 0.00 | 0.00 | 36 | 920.4 |
| 20260507103935 | 60 | 355 | 0.0 | 1.0 | 0.00 | 0.00 | 0.00 | 36 | 920.4 |
| 20260507103831 | 60 | 348 | 0.0 | 1.0 | 0.00 | 0.00 | 0.00 | 36 | 920.4 |
| 20260507103727 | 60 | 333 | 0.0 | 1.0 | 0.00 | 0.00 | 0.00 | 36 | 920.4 |
| 20260507103619 | 60 | 333 | 0.0 | 1.0 | 0.00 | 0.00 | 0.00 | 36 | 920.4 |
| 20260507103511 | 60 | 330 | 0.0 | 1.0 | 0.00 | 0.00 | 0.00 | 36 | 920.3 |
| 20260507103408 | 60 | 319 | 0.0 | 1.0 | 0.00 | 0.00 | 0.00 | 36 | 920.4 |
| 20260507103301 | 61 | 319 | 0.0 | 1.0 | 0.00 | 0.00 | 0.00 | 36 | 920.4 |
| 20260507103157 | 61 | 300 | 0.0 | 1.0 | 0.00 | 0.00 | 0.00 | 36 | 920.4 |
| 20260507103051 | 61 | 262 | 0.0 | 1.0 | 0.00 | 0.00 | 0.00 | 35 | 920.4 |
| 20260507102947 | 61 | 251 | 0.0 | 1.0 | 0.00 | 0.00 | 0.00 | 35 | 920.4 |
| 20260507102844 | 61 | 251 | 0.0 | 1.0 | 0.00 | 0.00 | 0.00 | 35 | 920.4 |
| 20260507102741 | 61 | 250 | 0.0 | 1.0 | 0.00 | 0.00 | 0.00 | 35 | 920.3 |
| 20260507102414 | 61 | 238 | 0.0 | 0.0 | 0.00 | 0.00 | 0.00 | 35 | 920.4 |
| 20260507102308 | 61 | 236 | 0.0 | 0.0 | 0.00 | 0.00 | 0.00 | 35 | 920.4 |
| 20260507101941 | 61 | 236 | 0.0 | 0.0 | 0.00 | 0.00 | 0.00 | 35 | 920.3 |
| 20260507101835 | 61 | 236 | 0.0 | 0.0 | 0.00 | 0.00 | 0.00 | 35 | 920.3 |
| 20260507101728 | 61 | 236 | 0.0 | 0.0 | 0.00 | 0.00 | 0.00 | 35 | 920.3 |
| 20260507101359 | 62 | 236 | 0.0 | 0.0 | 0.00 | 0.00 | 0.00 | 34 | 920.3 |
| 20260507100812 | 62 | 236 | 0.0 | 0.0 | 0.00 | 0.00 | 0.00 | 34 | 920.2 |
| 20260507100442 | 62 | 236 | 0.0 | 0.0 | 0.00 | 0.00 | 0.00 | 34 | 920.3 |
| 20260507100340 | 62 | 236 | 0.0 | 0.0 | 0.00 | 0.00 | 0.00 | 34 | 920.2 |
| 20260507100233 | 63 | 236 | 0.0 | 0.0 | 0.00 | 0.00 | 0.00 | 33 | 920.3 |
| 20260507100126 | 63 | 236 | 0.0 | 0.0 | 0.00 | 0.00 | 0.00 | 33 | 920.2 |
| 20260507100021 | 63 | 236 | 0.0 | 0.0 | 0.00 | 0.00 | 0.00 | 33 | 920.2 |
| 20260507095919 | 63 | 236 | 0.0 | 0.0 | 0.00 | 0.00 | 0.00 | 33 | 920.2 |
| 20260507095817 | 63 | 236 | 0.0 | 0.0 | 0.00 | 0.00 | 0.00 | 33 | 920.2 |
| 20260507095712 | 63 | 236 | 0.0 | 0.0 | 0.00 | 0.00 | 0.00 | 33 | 920.3 |
| 20260507095605 | 63 | 236 | 0.0 | 0.0 | 0.00 | 0.00 | 0.00 | 33 | 920.3 |
| 20260507095500 | 63 | 236 | 0.0 | 1.0 | 0.00 | 0.00 | 0.00 | 33 | 920.2 |
| 20260507095133 | 64 | 236 | 0.0 | 1.0 | 0.00 | 0.00 | 0.00 | 33 | 920.3 |
| 20260507095027 | 64 | 240 | 0.0 | 1.0 | 0.00 | 0.00 | 0.00 | 33 | 920.2 |
| 20260507094920 | 64 | 240 | 0.0 | 0.0 | 0.00 | 0.00 | 0.00 | 32 | 920.2 |
| 20260507094555 | 64 | 240 | 0.0 | 0.0 | 0.00 | 0.00 | 0.00 | 32 | 920.2 |
| 20260507094451 | 64 | 240 | 0.0 | 1.0 | 0.00 | 0.00 | 0.00 | 32 | 920.3 |
| 20260507094345 | 64 | 240 | 0.0 | 1.0 | 0.00 | 0.00 | 0.00 | 32 | 920.2 |
| 20260507094240 | 64 | 241 | 0.0 | 1.0 | 0.00 | 0.00 | 0.00 | 32 | 920.2 |
| 20260507094132 | 64 | 293 | 0.0 | 0.0 | 0.00 | 0.00 | 0.00 | 31 | 920.2 |
| 20260507094027 | 64 | 293 | 0.0 | 0.0 | 0.00 | 0.00 | 0.00 | 31 | 920.2 |
| 20260507093925 | 64 | 293 | 0.0 | 0.0 | 0.00 | 0.00 | 0.00 | 32 | 920.2 |
| 20260507093823 | 64 | 293 | 0.0 | 0.0 | 0.00 | 0.00 | 0.00 | 32 | 920.2 |
| 20260507093716 | 65 | 293 | 0.0 | 0.0 | 0.00 | 0.00 | 0.00 | 32 | 920.2 |
| 20260507093613 | 65 | 293 | 0.0 | 0.0 | 0.00 | 0.00 | 0.00 | 31 | 920.3 |
| 20260507093508 | 65 | 293 | 0.0 | 0.0 | 0.00 | 0.00 | 0.00 | 31 | 920.2 |
| 20260507093144 | 65 | 293 | 0.0 | 0.0 | 0.00 | 0.00 | 0.00 | 31 | 920.3 |
| 20260507093037 | 65 | 293 | 0.0 | 0.0 | 0.00 | 0.00 | 0.00 | 31 | 920.2 |
| 20260507092932 | 65 | 293 | 0.0 | 3.0 | 0.00 | 0.00 | 0.00 | 31 | 920.2 |
| 20260507092827 | 65 | 293 | 0.0 | 3.0 | 0.00 | 0.00 | 0.00 | 31 | 920.2 |
| 20260507092508 | 65 | 293 | 0.0 | 3.0 | 0.00 | 0.00 | 0.00 | 30 | 920.2 |
| 20260507092402 | 65 | 277 | 0.0 | 3.0 | 0.00 | 0.00 | 0.00 | 30 | 920.2 |
| 20260507092032 | 65 | 276 | 0.0 | 2.0 | 0.00 | 0.00 | 0.00 | 30 | 920.3 |
| 20260507091708 | 65 | 242 | 0.0 | 2.0 | 0.00 | 0.00 | 0.00 | 30 | 920.3 |
| 20260507091604 | 66 | 250 | 0.0 | 2.0 | 0.00 | 0.00 | 0.00 | 30 | 920.2 |
| 20260507091459 | 66 | 256 | 0.0 | 2.0 | 0.00 | 0.00 | 0.00 | 30 | 920.2 |
| 20260507091357 | 66 | 251 | 0.0 | 2.0 | 0.00 | 0.00 | 0.00 | 30 | 920.2 |
| 20260507091249 | 66 | 320 | 0.0 | 2.0 | 0.00 | 0.00 | 0.00 | 30 | 920.3 |
| 20260507091141 | 66 | 329 | 0.0 | 2.0 | 0.00 | 0.00 | 0.00 | 30 | 920.2 |
| 20260507090813 | 66 | 346 | 1.0 | 2.0 | 0.00 | 0.00 | 0.00 | 29 | 920.2 |
| 20260507090445 | 66 | 351 | 1.0 | 2.0 | 0.00 | 0.00 | 0.00 | 29 | 920.2 |
| 20260507090343 | 66 | 351 | 1.0 | 2.0 | 0.00 | 0.00 | 0.00 | 29 | 920.2 |
| 20260507085759 | 66 | 265 | 0.0 | 4.0 | 0.00 | 0.00 | 0.00 | 30 | 920.3 |
| 20260507085653 | 66 | 262 | 0.0 | 4.0 | 0.00 | 0.00 | 0.00 | 30 | 920.2 |
| 20260507085546 | 66 | 333 | 0.0 | 4.0 | 0.00 | 0.00 | 0.00 | 30 | 920.2 |
| 20260507085439 | 66 | 21 | 1.0 | 4.0 | 0.00 | 0.00 | 0.00 | 30 | 920.2 |
| 20260507085334 | 66 | 29 | 1.0 | 4.0 | 0.00 | 0.00 | 0.00 | 30 | 920.2 |
| 20260507085009 | 66 | 5 | 1.0 | 4.0 | 0.00 | 0.00 | 0.00 | 30 | 920.2 |
| 20260507084648 | 66 | 30 | 2.0 | 4.0 | 0.00 | 0.00 | 0.00 | 30 | 920.3 |
| 20260507084545 | 66 | 37 | 2.0 | 4.0 | 0.00 | 0.00 | 0.00 | 30 | 920.2 |
| 20260507084442 | 66 | 24 | 2.0 | 4.0 | 0.00 | 0.00 | 0.00 | 30 | 920.2 |
| 20260507084117 | 66 | 26 | 1.0 | 4.0 | 0.00 | 0.00 | 0.00 | 30 | 920.2 |
| 20260507084014 | 66 | 21 | 1.0 | 4.0 | 0.00 | 0.00 | 0.00 | 30 | 920.3 |
| 20260507083909 | 66 | 35 | 1.0 | 4.0 | 0.00 | 0.00 | 0.00 | 31 | 920.3 |
| 20260507083804 | 65 | 31 | 1.0 | 3.0 | 0.00 | 0.00 | 0.00 | 31 | 920.2 |
| 20260507083657 | 65 | 27 | 1.0 | 3.0 | 0.00 | 0.00 | 0.00 | 31 | 920.3 |
| 20260507083549 | 65 | 38 | 1.0 | 3.0 | 0.00 | 0.00 | 0.00 | 31 | 920.3 |
| 20260507083441 | 65 | 5 | 1.0 | 2.0 | 0.00 | 0.00 | 0.00 | 31 | 920.3 |
| 20260507083338 | 65 | 20 | 1.0 | 2.0 | 0.00 | 0.00 | 0.00 | 31 | 920.3 |
| 20260507083233 | 65 | 40 | 0.0 | 2.0 | 0.00 | 0.00 | 0.00 | 31 | 920.3 |
| 20260507083128 | 65 | 18 | 0.0 | 2.0 | 0.00 | 0.00 | 0.00 | 31 | 920.3 |
| 20260507083021 | 65 | 18 | 0.0 | 2.0 | 0.00 | 0.00 | 0.00 | 31 | 920.3 |
| 20260507082917 | 65 | 5 | 0.0 | 2.0 | 0.00 | 0.00 | 0.00 | 31 | 920.3 |
| 20260507082552 | 66 | 5 | 0.0 | 2.0 | 0.00 | 0.00 | 0.00 | 31 | 920.2 |
| 20260507082447 | 66 | 25 | 0.0 | 1.0 | 0.00 | 0.00 | 0.00 | 31 | 920.2 |
| 20260507082126 | 66 | 24 | 0.0 | 1.0 | 0.00 | 0.00 | 0.00 | 31 | 920.3 |
| 20260507081802 | 66 | 33 | 0.0 | 1.0 | 0.00 | 0.00 | 0.00 | 31 | 920.3 |
| 20260507081655 | 66 | 33 | 0.0 | 2.0 | 0.00 | 0.00 | 0.00 | 31 | 920.2 |
| 20260507081549 | 66 | 33 | 0.0 | 2.0 | 0.00 | 0.00 | 0.00 | 31 | 920.3 |
| 20260507081443 | 66 | 33 | 0.0 | 2.0 | 0.00 | 0.00 | 0.00 | 31 | 920.3 |
| 20260507081337 | 66 | 33 | 0.0 | 2.0 | 0.00 | 0.00 | 0.00 | 31 | 920.3 |
| 20260507081013 | 66 | 36 | 0.0 | 2.0 | 0.00 | 0.00 | 0.00 | 31 | 920.3 |
| 20260507080907 | 65 | 36 | 0.0 | 2.0 | 0.00 | 0.00 | 0.00 | 31 | 920.3 |
| 20260507080803 | 66 | 47 | 0.0 | 2.0 | 0.00 | 0.00 | 0.00 | 31 | 920.2 |
| 20260507080658 | 65 | 47 | 0.0 | 3.0 | 0.00 | 0.00 | 0.00 | 31 | 920.2 |
| 20260507080552 | 65 | 47 | 0.0 | 3.0 | 0.00 | 0.00 | 0.00 | 31 | 920.3 |
| 20260507080446 | 65 | 47 | 0.0 | 3.0 | 0.00 | 0.00 | 0.00 | 31 | 920.3 |
| 20260507080122 | 65 | 43 | 0.0 | 3.0 | 0.00 | 0.00 | 0.00 | 31 | 920.3 |
| 20260507080018 | 65 | 40 | 0.0 | 3.0 | 0.00 | 0.00 | 0.00 | 31 | 920.3 |
| 20260507075916 | 66 | 28 | 0.0 | 3.0 | 0.00 | 0.00 | 0.00 | 31 | 920.3 |
| 20260507075814 | 66 | 27 | 0.0 | 3.0 | 0.00 | 0.00 | 0.00 | 31 | 920.3 |
| 20260507075710 | 66 | 29 | 0.0 | 3.0 | 0.00 | 0.00 | 0.00 | 31 | 920.3 |
| 20260507075604 | 66 | 29 | 1.0 | 3.0 | 0.00 | 0.00 | 0.00 | 31 | 920.3 |
| 20260507075244 | 66 | 29 | 1.0 | 3.0 | 0.00 | 0.00 | 0.00 | 31 | 920.3 |
| 20260507074916 | 66 | 32 | 1.0 | 3.0 | 0.00 | 0.00 | 0.00 | 31 | 920.2 |
| 20260507074810 | 66 | 29 | 1.0 | 3.0 | 0.00 | 0.00 | 0.00 | 31 | 920.3 |
| 20260507074707 | 66 | 23 | 1.0 | 2.0 | 0.00 | 0.00 | 0.00 | 31 | 920.2 |
| 20260507074604 | 66 | 11 | 0.0 | 2.0 | 0.00 | 0.00 | 0.00 | 31 | 920.2 |
| 20260507074459 | 66 | 33 | 0.0 | 2.0 | 0.00 | 0.00 | 0.00 | 31 | 920.2 |
| 20260507074355 | 66 | 36 | 0.0 | 2.0 | 0.00 | 0.00 | 0.00 | 30 | 920.2 |
| 20260507074248 | 66 | 39 | 0.0 | 2.0 | 0.00 | 0.00 | 0.00 | 30 | 920.2 |
| 20260507074144 | 66 | 24 | 0.0 | 2.0 | 0.00 | 0.00 | 0.00 | 30 | 920.2 |
| 20260507073819 | 66 | 40 | 0.0 | 2.0 | 0.00 | 0.00 | 0.00 | 30 | 920.2 |
| 20260507073714 | 66 | 41 | 0.0 | 2.0 | 0.00 | 0.00 | 0.00 | 30 | 920.2 |
| 20260507073612 | 66 | 40 | 0.0 | 2.0 | 0.00 | 0.00 | 0.00 | 30 | 920.2 |
| 20260507073250 | 67 | 22 | 0.0 | 1.0 | 0.00 | 0.00 | 0.00 | 30 | 920.2 |
| 20260507073145 | 67 | 5 | 0.0 | 1.0 | 0.00 | 0.00 | 0.00 | 30 | 920.2 |
| 20260507072817 | 67 | 245 | 0.0 | 0.0 | 0.00 | 0.00 | 0.00 | 29 | 920.2 |
| 20260507072711 | 67 | 245 | 0.0 | 0.0 | 0.00 | 0.00 | 0.00 | 29 | 920.2 |
| 20260507072605 | 67 | 245 | 0.0 | 0.0 | 0.00 | 0.00 | 0.00 | 29 | 920.1 |
| 20260507072503 | 67 | 245 | 0.0 | 0.0 | 0.00 | 0.00 | 0.00 | 29 | 920.2 |
| 20260507072400 | 67 | 245 | 0.0 | 0.0 | 0.00 | 0.00 | 0.00 | 29 | 920.2 |
| 20260507072037 | 68 | 245 | 0.0 | 0.0 | 0.00 | 0.00 | 0.00 | 29 | 920.2 |
| 20260507071930 | 68 | 245 | 0.0 | 0.0 | 0.00 | 0.00 | 0.00 | 29 | 920.2 |
| 20260507071827 | 68 | 245 | 0.0 | 0.0 | 0.00 | 0.00 | 0.00 | 29 | 920.2 |
| 20260507071722 | 68 | 245 | 0.0 | 0.0 | 0.00 | 0.00 | 0.00 | 29 | 920.1 |
| 20260507071620 | 68 | 245 | 0.0 | 0.0 | 0.00 | 0.00 | 0.00 | 28 | 920.1 |
| 20260507071516 | 68 | 245 | 0.0 | 3.0 | 0.00 | 0.00 | 0.00 | 28 | 920.1 |
| 20260507071414 | 68 | 245 | 0.0 | 3.0 | 0.00 | 0.00 | 0.00 | 28 | 920.1 |
| 20260507071309 | 68 | 245 | 0.0 | 3.0 | 0.00 | 0.00 | 0.00 | 28 | 920.1 |
| 20260507070944 | 69 | 245 | 0.0 | 3.0 | 0.00 | 0.00 | 0.00 | 28 | 920.0 |
| 20260507070837 | 69 | 238 | 0.0 | 3.0 | 0.00 | 0.00 | 0.00 | 28 | 920.0 |
| 20260507070733 | 69 | 238 | 0.0 | 3.0 | 0.00 | 0.00 | 0.00 | 27 | 920.0 |
| 20260507070413 | 69 | 261 | 0.0 | 3.0 | 0.00 | 0.00 | 0.00 | 28 | 920.0 |
| 20260507070308 | 70 | 249 | 0.0 | 3.0 | 0.00 | 0.00 | 0.00 | 27 | 919.9 |
| 20260507070203 | 70 | 229 | 0.0 | 3.0 | 0.00 | 0.00 | 0.00 | 27 | 919.9 |
| 20260507065838 | 70 | 225 | 0.0 | 3.0 | 0.00 | 0.00 | 0.00 | 27 | 919.9 |
| 20260507065732 | 70 | 225 | 0.0 | 3.0 | 0.00 | 0.00 | 0.00 | 27 | 919.9 |
| 20260507065630 | 70 | 222 | 0.0 | 3.0 | 0.00 | 0.00 | 0.00 | 27 | 919.8 |
| 20260507065524 | 70 | 238 | 0.0 | 2.0 | 0.00 | 0.00 | 0.00 | 27 | 919.8 |
| 20260507065156 | 70 | 267 | 0.0 | 3.0 | 0.00 | 0.00 | 0.00 | 27 | 919.8 |
| 20260507064831 | 70 | 267 | 0.0 | 3.0 | 0.00 | 0.00 | 0.00 | 27 | 919.8 |
| 20260507064729 | 71 | 267 | 0.0 | 3.0 | 0.00 | 0.00 | 0.00 | 26 | 919.8 |
| 20260507064624 | 71 | 267 | 0.0 | 3.0 | 0.00 | 0.00 | 0.00 | 26 | 919.8 |
| 20260507064520 | 71 | 267 | 0.0 | 3.0 | 0.00 | 0.00 | 0.00 | 26 | 919.8 |
| 20260507064157 | 71 | 10 | 1.0 | 3.0 | 0.00 | 0.00 | 0.00 | 26 | 919.7 |
| 20260507063832 | 71 | 211 | 1.0 | 3.0 | 0.00 | 0.00 | 0.00 | 26 | 919.7 |
| 20260507063725 | 71 | 258 | 1.0 | 3.0 | 0.00 | 0.00 | 0.00 | 26 | 919.7 |
| 20260507063618 | 71 | 22 | 1.0 | 3.0 | 0.00 | 0.00 | 0.00 | 26 | 919.7 |
| 20260507063512 | 71 | 23 | 1.0 | 4.0 | 0.00 | 0.00 | 0.00 | 26 | 919.6 |
| 20260507063410 | 71 | 24 | 1.0 | 4.0 | 0.00 | 0.00 | 0.00 | 26 | 919.6 |
| 20260507063306 | 71 | 26 | 1.0 | 4.0 | 0.00 | 0.00 | 0.00 | 26 | 919.6 |
| 20260507063159 | 71 | 22 | 1.0 | 4.0 | 0.00 | 0.00 | 0.00 | 26 | 919.7 |
| 20260507063057 | 71 | 17 | 1.0 | 4.0 | 0.00 | 0.00 | 0.00 | 26 | 919.7 |
| 20260507062955 | 71 | 25 | 1.0 | 4.0 | 0.00 | 0.00 | 0.00 | 26 | 919.6 |
| 20260507062849 | 71 | 28 | 1.0 | 4.0 | 0.00 | 0.00 | 0.00 | 26 | 919.6 |
| 20260507062743 | 71 | 15 | 1.0 | 4.0 | 0.00 | 0.00 | 0.00 | 26 | 919.6 |
| 20260507062637 | 71 | 25 | 1.0 | 4.0 | 0.00 | 0.00 | 0.00 | 26 | 919.6 |
| 20260507062531 | 71 | 31 | 1.0 | 4.0 | 0.00 | 0.00 | 0.00 | 26 | 919.6 |
| 20260507062428 | 71 | 32 | 1.0 | 4.0 | 0.00 | 0.00 | 0.00 | 26 | 919.6 |
| 20260507062324 | 71 | 22 | 1.0 | 4.0 | 0.00 | 0.00 | 0.00 | 26 | 919.7 |
| 20260507062216 | 72 | 20 | 1.0 | 4.0 | 0.00 | 0.00 | 0.00 | 26 | 919.6 |
| 20260507062112 | 72 | 25 | 1.0 | 4.0 | 0.00 | 0.00 | 0.00 | 26 | 919.6 |
| 20260507062006 | 72 | 38 | 1.0 | 4.0 | 0.00 | 0.00 | 0.00 | 26 | 919.6 |
| 20260507061859 | 72 | 9 | 1.0 | 4.0 | 0.00 | 0.00 | 0.00 | 26 | 919.6 |
| 20260507061754 | 72 | 11 | 1.0 | 4.0 | 0.00 | 0.00 | 0.00 | 26 | 919.5 |
| 20260507061217 | 72 | 28 | 1.0 | 3.0 | 0.00 | 0.00 | 0.00 | 26 | 919.5 |
| 20260507061110 | 72 | 30 | 1.0 | 3.0 | 0.00 | 0.00 | 0.00 | 26 | 919.6 |
| 20260507061005 | 72 | 31 | 1.0 | 3.0 | 0.00 | 0.00 | 0.00 | 26 | 919.5 |
| 20260507060900 | 72 | 24 | 1.0 | 3.0 | 0.00 | 0.00 | 0.00 | 25 | 919.5 |
| 20260507060535 | 73 | 32 | 0.0 | 2.0 | 0.00 | 0.00 | 0.00 | 25 | 919.5 |
| 20260507060431 | 73 | 13 | 0.0 | 2.0 | 0.00 | 0.00 | 0.00 | 25 | 919.5 |
| 20260507060326 | 73 | 23 | 0.0 | 2.0 | 0.00 | 0.00 | 0.00 | 25 | 919.5 |
| 20260507060224 | 73 | 25 | 0.0 | 1.0 | 0.00 | 0.00 | 0.00 | 25 | 919.5 |
| 20260507060117 | 73 | 22 | 0.0 | 1.0 | 0.00 | 0.00 | 0.00 | 25 | 919.5 |
| 20260507060015 | 73 | 34 | 0.0 | 1.0 | 0.00 | 0.00 | 0.00 | 25 | 919.5 |
| 20260507055912 | 73 | 44 | 0.0 | 1.0 | 0.00 | 0.00 | 0.00 | 25 | 919.5 |
| 20260507055805 | 73 | 44 | 0.0 | 0.0 | 0.00 | 0.00 | 0.00 | 25 | 919.4 |
| 20260507055701 | 73 | 44 | 0.0 | 0.0 | 0.00 | 0.00 | 0.00 | 25 | 919.5 |
| 20260507055557 | 73 | 44 | 0.0 | 3.0 | 0.00 | 0.00 | 0.00 | 25 | 919.5 |
| 20260507055450 | 73 | 44 | 0.0 | 4.0 | 0.00 | 0.00 | 0.00 | 25 | 919.5 |
| 20260507055345 | 73 | 44 | 1.0 | 4.0 | 0.00 | 0.00 | 0.00 | 25 | 919.5 |
| 20260507055020 | 73 | 44 | 1.0 | 4.0 | 0.00 | 0.00 | 0.00 | 25 | 919.4 |
| 20260507054914 | 73 | 44 | 1.0 | 4.0 | 0.00 | 0.00 | 0.00 | 25 | 919.4 |
| 20260507054808 | 73 | 44 | 1.0 | 4.0 | 0.00 | 0.00 | 0.00 | 25 | 919.5 |
| 20260507054441 | 73 | 50 | 1.0 | 4.0 | 0.00 | 0.00 | 0.00 | 25 | 919.4 |
| 20260507054333 | 73 | 46 | 1.0 | 4.0 | 0.00 | 0.00 | 0.00 | 25 | 919.4 |
| 20260507054226 | 73 | 49 | 1.0 | 4.0 | 0.00 | 0.00 | 0.00 | 25 | 919.4 |
| 20260507054120 | 73 | 46 | 1.0 | 4.0 | 0.00 | 0.00 | 0.00 | 25 | 919.4 |
| 20260507054014 | 73 | 46 | 2.0 | 4.0 | 0.00 | 0.00 | 0.00 | 25 | 919.4 |
| 20260507053649 | 73 | 54 | 2.0 | 4.0 | 0.00 | 0.00 | 0.00 | 25 | 919.4 |
| 20260507053544 | 73 | 46 | 2.0 | 4.0 | 0.00 | 0.00 | 0.00 | 25 | 919.4 |
| 20260507053439 | 73 | 60 | 2.0 | 3.0 | 0.00 | 0.00 | 0.00 | 25 | 919.4 |
| 20260507053335 | 73 | 57 | 2.0 | 3.0 | 0.00 | 0.00 | 0.00 | 25 | 919.4 |
| 20260507053227 | 73 | 61 | 1.0 | 3.0 | 0.00 | 0.00 | 0.00 | 25 | 919.4 |
| 20260507053121 | 73 | 48 | 1.0 | 3.0 | 0.00 | 0.00 | 0.00 | 25 | 919.4 |
| 20260507053018 | 73 | 50 | 1.0 | 3.0 | 0.00 | 0.00 | 0.00 | 25 | 919.4 |
| 20260507052657 | 73 | 50 | 1.0 | 3.0 | 0.00 | 0.00 | 0.00 | 25 | 919.4 |
| 20260507052550 | 73 | 54 | 1.0 | 2.0 | 0.00 | 0.00 | 0.00 | 25 | 919.4 |
| 20260507052447 | 73 | 67 | 1.0 | 2.0 | 0.00 | 0.00 | 0.00 | 25 | 919.4 |
| 20260507052342 | 73 | 92 | 1.0 | 2.0 | 0.00 | 0.00 | 0.00 | 25 | 919.5 |
| 20260507052235 | 73 | 78 | 1.0 | 2.0 | 0.00 | 0.00 | 0.00 | 25 | 919.4 |
| 20260507052133 | 73 | 62 | 1.0 | 2.0 | 0.00 | 0.00 | 0.00 | 25 | 919.4 |
| 20260507052026 | 73 | 88 | 1.0 | 2.0 | 0.00 | 0.00 | 0.00 | 25 | 919.4 |
| 20260507051923 | 73 | 81 | 1.0 | 2.0 | 0.00 | 0.00 | 0.00 | 25 | 919.4 |
| 20260507051817 | 73 | 82 | 1.0 | 2.0 | 0.00 | 0.00 | 0.00 | 25 | 919.4 |
| 20260507051710 | 73 | 90 | 1.0 | 2.0 | 0.00 | 0.00 | 0.00 | 25 | 919.4 |
| 20260507051607 | 73 | 79 | 1.0 | 2.0 | 0.00 | 0.00 | 0.00 | 25 | 919.4 |
| 20260507051500 | 73 | 83 | 1.0 | 2.0 | 0.00 | 0.00 | 0.00 | 25 | 919.4 |
| 20260507051354 | 73 | 82 | 1.0 | 2.0 | 0.00 | 0.00 | 0.00 | 25 | 919.4 |
| 20260507051028 | 74 | 70 | 0.0 | 2.0 | 0.00 | 0.00 | 0.00 | 25 | 919.4 |
| 20260507050925 | 74 | 63 | 0.0 | 2.0 | 0.00 | 0.00 | 0.00 | 25 | 919.4 |
| 20260507050818 | 74 | 84 | 0.0 | 2.0 | 0.00 | 0.00 | 0.00 | 25 | 919.4 |
| 20260507050713 | 74 | 73 | 0.0 | 2.0 | 0.00 | 0.00 | 0.00 | 25 | 919.4 |
| 20260507050606 | 74 | 84 | 0.0 | 2.0 | 0.00 | 0.00 | 0.00 | 25 | 919.4 |
| 20260507050501 | 74 | 59 | 0.0 | 2.0 | 0.00 | 0.00 | 0.00 | 24 | 919.4 |
| 20260507050140 | 74 | 80 | 1.0 | 3.0 | 0.00 | 0.00 | 0.00 | 24 | 919.4 |
| 20260507050037 | 74 | 80 | 1.0 | 3.0 | 0.00 | 0.00 | 0.00 | 24 | 919.4 |
| 20260507045933 | 74 | 74 | 1.0 | 3.0 | 0.00 | 0.00 | 0.00 | 24 | 919.4 |
| 20260507045826 | 74 | 74 | 1.0 | 3.0 | 0.00 | 0.00 | 0.00 | 24 | 919.4 |
| 20260507045720 | 74 | 86 | 1.0 | 3.0 | 0.00 | 0.00 | 0.00 | 24 | 919.4 |
| 20260507045618 | 74 | 64 | 1.0 | 3.0 | 0.00 | 0.00 | 0.00 | 24 | 919.4 |
| 20260507045511 | 74 | 84 | 1.0 | 3.0 | 0.00 | 0.00 | 0.00 | 24 | 919.4 |
| 20260507045405 | 74 | 56 | 1.0 | 4.0 | 0.00 | 0.00 | 0.00 | 24 | 919.3 |
| 20260507045300 | 74 | 63 | 1.0 | 4.0 | 0.00 | 0.00 | 0.00 | 24 | 919.3 |
| 20260507045156 | 74 | 65 | 1.0 | 4.0 | 0.00 | 0.00 | 0.00 | 24 | 919.2 |
| 20260507045050 | 74 | 56 | 1.0 | 4.0 | 0.00 | 0.00 | 0.00 | 24 | 919.3 |
| 20260507044948 | 74 | 40 | 1.0 | 4.0 | 0.00 | 0.00 | 0.00 | 24 | 919.3 |
| 20260507044840 | 74 | 69 | 1.0 | 4.0 | 0.00 | 0.00 | 0.00 | 24 | 919.3 |
| 20260507044736 | 74 | 50 | 1.0 | 4.0 | 0.00 | 0.00 | 0.00 | 24 | 919.3 |
| 20260507044634 | 74 | 77 | 1.0 | 4.0 | 0.00 | 0.00 | 0.00 | 24 | 919.3 |
| 20260507044528 | 74 | 65 | 1.0 | 4.0 | 0.00 | 0.00 | 0.00 | 24 | 919.3 |
| 20260507044425 | 74 | 78 | 1.0 | 4.0 | 0.00 | 0.00 | 0.00 | 24 | 919.3 |
| 20260507044322 | 74 | 50 | 1.0 | 4.0 | 0.00 | 0.00 | 0.00 | 24 | 919.2 |
| 20260507044217 | 74 | 71 | 1.0 | 4.0 | 0.00 | 0.00 | 0.00 | 24 | 919.3 |
| 20260507044113 | 74 | 77 | 1.0 | 4.0 | 0.00 | 0.00 | 0.00 | 24 | 919.2 |
| 20260507044009 | 74 | 55 | 1.0 | 4.0 | 0.00 | 0.00 | 0.00 | 24 | 919.2 |
| 20260507043902 | 74 | 62 | 1.0 | 4.0 | 0.00 | 0.00 | 0.00 | 24 | 919.2 |
| 20260507043758 | 75 | 73 | 1.0 | 4.0 | 0.00 | 0.00 | 0.00 | 24 | 919.2 |
| 20260507043653 | 75 | 74 | 1.0 | 4.0 | 0.00 | 0.00 | 0.00 | 24 | 919.3 |
| 20260507043547 | 75 | 44 | 0.0 | 4.0 | 0.00 | 0.00 | 0.00 | 24 | 919.2 |
| 20260507043443 | 75 | 73 | 0.0 | 4.0 | 0.00 | 0.00 | 0.00 | 24 | 919.2 |
| 20260507043338 | 75 | 71 | 0.0 | 2.0 | 0.00 | 0.00 | 0.00 | 24 | 919.2 |
| 20260507043233 | 75 | 58 | 0.0 | 2.0 | 0.00 | 0.00 | 0.00 | 24 | 919.2 |
| 20260507043129 | 75 | 78 | 1.0 | 2.0 | 0.00 | 0.00 | 0.00 | 24 | 919.2 |
| 20260507042804 | 75 | 65 | 0.0 | 4.0 | 0.00 | 0.00 | 0.00 | 24 | 919.2 |
| 20260507042436 | 75 | 63 | 0.0 | 4.0 | 0.00 | 0.00 | 0.00 | 24 | 919.2 |
| 20260507042328 | 75 | 59 | 0.0 | 4.0 | 0.00 | 0.00 | 0.00 | 24 | 919.2 |
| 20260507042005 | 75 | 74 | 1.0 | 4.0 | 0.00 | 0.00 | 0.00 | 24 | 919.2 |
| 20260507041903 | 75 | 76 | 1.0 | 4.0 | 0.00 | 0.00 | 0.00 | 24 | 919.2 |
| 20260507041757 | 75 | 69 | 1.0 | 4.0 | 0.00 | 0.00 | 0.00 | 24 | 919.2 |
| 20260507041653 | 75 | 69 | 1.0 | 4.0 | 0.00 | 0.00 | 0.00 | 24 | 919.2 |
| 20260507041544 | 75 | 86 | 1.0 | 4.0 | 0.00 | 0.00 | 0.00 | 24 | 919.1 |
| 20260507041437 | 75 | 67 | 1.0 | 4.0 | 0.00 | 0.00 | 0.00 | 24 | 919.2 |
| 20260507041111 | 75 | 74 | 1.0 | 4.0 | 0.00 | 0.00 | 0.00 | 24 | 919.1 |
| 20260507041004 | 75 | 71 | 0.0 | 4.0 | 0.00 | 0.00 | 0.00 | 24 | 919.1 |
| 20260507040858 | 75 | 95 | 0.0 | 4.0 | 0.00 | 0.00 | 0.00 | 24 | 919.1 |
| 20260507040752 | 75 | 82 | 0.0 | 3.0 | 0.00 | 0.00 | 0.00 | 24 | 919.1 |
| 20260507040429 | 75 | 80 | 0.0 | 3.0 | 0.00 | 0.00 | 0.00 | 24 | 919.1 |
| 20260507040326 | 75 | 80 | 0.0 | 3.0 | 0.00 | 0.00 | 0.00 | 24 | 919.1 |
| 20260507040221 | 75 | 80 | 0.0 | 3.0 | 0.00 | 0.00 | 0.00 | 24 | 919.0 |
| 20260507040116 | 75 | 76 | 0.0 | 3.0 | 0.00 | 0.00 | 0.00 | 24 | 919.1 |
| 20260507040013 | 75 | 80 | 0.0 | 3.0 | 0.00 | 0.00 | 0.00 | 24 | 919.0 |
| 20260507035909 | 75 | 58 | 0.0 | 3.0 | 0.00 | 0.00 | 0.00 | 24 | 919.0 |
| 20260507035804 | 75 | 62 | 0.0 | 3.0 | 0.00 | 0.00 | 0.00 | 24 | 919.0 |
| 20260507035657 | 75 | 88 | 0.0 | 3.0 | 0.00 | 0.00 | 0.00 | 24 | 919.0 |
| 20260507035554 | 75 | 70 | 0.0 | 2.0 | 0.00 | 0.00 | 0.00 | 24 | 919.0 |
| 20260507035448 | 76 | 79 | 0.0 | 2.0 | 0.00 | 0.00 | 0.00 | 24 | 918.9 |
| 20260507035342 | 76 | 62 | 0.0 | 2.0 | 0.00 | 0.00 | 0.00 | 24 | 919.0 |
| 20260507035238 | 76 | 61 | 0.0 | 2.0 | 0.00 | 0.00 | 0.00 | 23 | 918.9 |
| 20260507035134 | 76 | 75 | 0.0 | 2.0 | 0.00 | 0.00 | 0.00 | 23 | 918.9 |
| 20260507035032 | 76 | 73 | 0.0 | 2.0 | 0.00 | 0.00 | 0.00 | 23 | 918.9 |
| 20260507034929 | 76 | 80 | 0.0 | 2.0 | 0.00 | 0.00 | 0.00 | 23 | 918.9 |
| 20260507034826 | 76 | 74 | 0.0 | 2.0 | 0.00 | 0.00 | 0.00 | 23 | 918.8 |
| 20260507034720 | 76 | 74 | 0.0 | 2.0 | 0.00 | 0.00 | 0.00 | 23 | 918.9 |
| 20260507034613 | 76 | 74 | 0.0 | 2.0 | 0.00 | 0.00 | 0.00 | 23 | 918.9 |
| 20260507034508 | 76 | 84 | 0.0 | 2.0 | 0.00 | 0.00 | 0.00 | 23 | 918.9 |
| 20260507034404 | 76 | 58 | 0.0 | 2.0 | 0.00 | 0.00 | 0.00 | 23 | 918.8 |
| 20260507034300 | 76 | 65 | 0.0 | 2.0 | 0.00 | 0.00 | 0.00 | 23 | 918.8 |
| 20260507034153 | 76 | 72 | 0.0 | 2.0 | 0.00 | 0.00 | 0.00 | 23 | 918.8 |
| 20260507034047 | 76 | 52 | 0.0 | 2.0 | 0.00 | 0.00 | 0.00 | 23 | 918.8 |
| 20260507033943 | 76 | 47 | 0.0 | 2.0 | 0.00 | 0.00 | 0.00 | 23 | 918.8 |
| 20260507033840 | 76 | 63 | 0.0 | 2.0 | 0.00 | 0.00 | 0.00 | 23 | 918.8 |
| 20260507033513 | 76 | 53 | 0.0 | 2.0 | 0.00 | 0.00 | 0.00 | 23 | 918.7 |
| 20260507033407 | 76 | 73 | 0.0 | 2.0 | 0.00 | 0.00 | 0.00 | 23 | 918.7 |
| 20260507033302 | 77 | 79 | 0.0 | 2.0 | 0.00 | 0.00 | 0.00 | 23 | 918.7 |
| 20260507033157 | 77 | 70 | 0.0 | 2.0 | 0.00 | 0.00 | 0.00 | 23 | 918.7 |
| 20260507033052 | 77 | 63 | 0.0 | 2.0 | 0.00 | 0.00 | 0.00 | 23 | 918.7 |
| 20260507032943 | 77 | 65 | 0.0 | 2.0 | 0.00 | 0.00 | 0.00 | 22 | 918.6 |
| 20260507032839 | 77 | 78 | 0.0 | 2.0 | 0.00 | 0.00 | 0.00 | 22 | 918.7 |
| 20260507032736 | 77 | 59 | 0.0 | 2.0 | 0.00 | 0.00 | 0.00 | 22 | 918.6 |
| 20260507032634 | 77 | 69 | 0.0 | 2.0 | 0.00 | 0.00 | 0.00 | 22 | 918.6 |
| 20260507032532 | 77 | 75 | 0.0 | 2.0 | 0.00 | 0.00 | 0.00 | 22 | 918.6 |
| 20260507032425 | 77 | 75 | 0.0 | 2.0 | 0.00 | 0.00 | 0.00 | 22 | 918.6 |
| 20260507032320 | 77 | 77 | 0.0 | 2.0 | 0.00 | 0.00 | 0.00 | 22 | 918.5 |
| 20260507032215 | 77 | 80 | 0.0 | 2.0 | 0.00 | 0.00 | 0.00 | 22 | 918.6 |
| 20260507032109 | 77 | 84 | 0.0 | 2.0 | 0.00 | 0.00 | 0.00 | 22 | 918.6 |
| 20260507032003 | 77 | 67 | 0.0 | 1.0 | 0.00 | 0.00 | 0.00 | 22 | 918.5 |
| 20260507031858 | 77 | 84 | 0.0 | 1.0 | 0.00 | 0.00 | 0.00 | 22 | 918.5 |
| 20260507031755 | 77 | 82 | 0.0 | 1.0 | 0.00 | 0.00 | 0.00 | 22 | 918.4 |
| 20260507031648 | 78 | 88 | 0.0 | 1.0 | 0.00 | 0.00 | 0.00 | 22 | 918.5 |
| 20260507031545 | 78 | 88 | 0.0 | 1.0 | 0.00 | 0.00 | 0.00 | 22 | 918.4 |
| 20260507031437 | 78 | 75 | 0.0 | 1.0 | 0.00 | 0.00 | 0.00 | 22 | 918.4 |
| 20260507031114 | 78 | 84 | 0.0 | 1.0 | 0.00 | 0.00 | 0.00 | 21 | 918.4 |
| 20260507030744 | 78 | 85 | 0.0 | 1.0 | 0.00 | 0.00 | 0.00 | 21 | 918.3 |
| 20260507030639 | 78 | 111 | 0.0 | 0.0 | 0.00 | 0.00 | 0.00 | 21 | 918.3 |
| 20260507030537 | 78 | 113 | 0.0 | 0.0 | 0.00 | 0.00 | 0.00 | 21 | 918.3 |
| 20260507030432 | 79 | 113 | 0.0 | 1.0 | 0.00 | 0.00 | 0.00 | 21 | 918.3 |
| 20260507030329 | 79 | 113 | 0.0 | 1.0 | 0.00 | 0.00 | 0.00 | 21 | 918.2 |
| 20260507030224 | 79 | 113 | 0.0 | 1.0 | 0.00 | 0.00 | 0.00 | 21 | 918.2 |
| 20260507030117 | 79 | 113 | 0.0 | 1.0 | 0.00 | 0.00 | 0.00 | 21 | 918.2 |
| 20260507030014 | 79 | 113 | 0.0 | 1.0 | 0.00 | 0.00 | 0.00 | 21 | 918.2 |
| 20260507025907 | 79 | 158 | 0.0 | 1.0 | 0.00 | 0.00 | 0.00 | 21 | 918.2 |
| 20260507025803 | 79 | 158 | 0.0 | 1.0 | 0.00 | 0.00 | 0.00 | 21 | 918.3 |
| 20260507025656 | 79 | 158 | 0.0 | 1.0 | 0.00 | 0.00 | 0.00 | 21 | 918.3 |